[{"header": {"parameterCategory": 1, "parameterNumber": 2, "dx": 0.06612293990616946, "dy": 0.0552356325346848, "nx": 98, "ny": 59, "la1": 35.046912555036876, "la2": 31.78801023549047, "lo1": -121.43107172385933, "lo2": -114.95102361305473, "refTime": "2026041809"}, "data": [10.28, 10.28, 10.28, 10.28, 10.28, 10.73, 10.73, 10.73, 10.73, 10.73, 10.73, 10.73, 11.18, 11.18, 11.18, 11.18, 11.18, 11.18, 11.18, 11.18, 11.18, 11.62, 11.62, 11.62, 11.62, 11.62, 11.62, 12.07, 12.07, 12.07, 12.07, 12.07, 12.07, 12.07, 12.07, 12.07, 12.07, 12.07, 11.62, 11.62, 11.62, 12.07, 12.52, 12.96, 13.41, 13.86, 13.41, 12.96, 12.52, 12.52, 12.52, 12.52, 12.96, 12.96, 12.96, 12.96, 13.41, 13.41, 13.41, 13.41, 13.41, 13.41, 13.41, 13.86, 13.86, 13.86, 14.3, 14.3, 14.3, 14.75, 14.75, 14.75, 14.75, 14.75, 14.75, 15.2, 15.2, 15.2, 15.2, 15.2, 15.65, 15.65, 15.65, 15.65, 15.65, 15.65, 15.65, 16.09, 16.09, 15.65, 15.65, 15.65, 15.65, 15.2, 15.65, 15.65, 15.65, 16.09, 10.28, 10.28, 10.28, 10.28, 10.28, 10.28, 10.73, 10.73, 10.73, 10.73, 10.73, 10.73, 11.18, 11.18, 11.18, 11.18, 11.18, 11.18, 11.18, 11.18, 11.62, 11.62, 11.62, 11.62, 11.62, 11.62, 11.62, 12.07, 12.07, 12.07, 12.07, 12.07, 12.07, 12.07, 12.07, 12.07, 12.07, 12.07, 12.07, 12.07, 12.07, 12.07, 12.52, 13.41, 13.41, 13.41, 12.96, 12.52, 12.52, 12.52, 12.52, 12.96, 12.96, 12.96, 12.96, 12.96, 13.41, 13.41, 13.41, 13.41, 13.41, 13.41, 13.41, 13.86, 13.86, 13.86, 14.3, 14.3, 14.3, 14.3, 14.75, 14.75, 14.75, 14.75, 14.75, 15.2, 15.2, 15.2, 15.2, 15.2, 15.65, 15.65, 15.65, 15.65, 15.65, 15.65, 15.65, 16.09, 16.09, 15.65, 15.65, 15.65, 15.65, 15.2, 15.65, 15.65, 15.65, 16.09, 10.28, 10.28, 10.28, 10.28, 10.28, 10.28, 10.73, 10.73, 10.73, 10.73, 10.73, 10.73, 10.73, 11.18, 11.18, 11.18, 11.18, 11.18, 11.18, 11.18, 11.62, 11.62, 11.62, 11.62, 11.62, 11.62, 11.62, 12.07, 12.07, 12.07, 12.07, 12.07, 12.07, 12.07, 12.07, 12.07, 12.07, 12.07, 12.07, 12.07, 12.07, 12.52, 12.96, 13.41, 13.41, 12.96, 12.96, 12.96, 12.96, 12.96, 12.96, 12.96, 12.96, 12.96, 12.96, 12.96, 13.41, 13.41, 13.41, 13.41, 13.41, 13.41, 13.41, 13.86, 13.86, 13.86, 14.3, 14.3, 14.3, 14.75, 14.75, 14.75, 14.75, 14.75, 14.75, 15.2, 15.2, 15.2, 15.2, 15.2, 15.2, 15.65, 15.65, 15.65, 15.65, 15.65, 15.65, 16.09, 15.65, 15.65, 15.65, 15.65, 15.2, 15.2, 15.65, 15.65, 16.09, 16.09, 9.83, 10.28, 10.28, 10.28, 10.28, 10.28, 10.28, 10.73, 10.73, 10.73, 10.73, 10.73, 10.73, 11.18, 11.18, 11.18, 11.18, 11.18, 11.18, 11.18, 11.18, 11.62, 11.62, 11.62, 11.62, 11.62, 11.62, 11.62, 12.07, 12.07, 12.07, 12.07, 12.07, 12.07, 12.07, 12.07, 12.07, 12.07, 12.07, 12.52, 12.52, 12.96, 12.96, 12.96, 12.96, 12.96, 13.41, 13.41, 13.41, 13.41, 12.96, 12.96, 12.96, 12.96, 12.96, 13.41, 13.41, 13.41, 13.86, 13.86, 13.86, 13.86, 13.86, 13.86, 13.86, 13.86, 14.3, 14.3, 14.75, 14.75, 14.75, 14.75, 14.75, 14.75, 15.2, 15.2, 15.2, 15.2, 15.2, 15.2, 15.2, 15.65, 15.65, 15.65, 15.65, 15.65, 15.65, 15.65, 15.65, 15.65, 15.2, 15.2, 15.2, 15.2, 15.65, 15.65, 16.09, 16.09, 9.83, 9.83, 10.28, 10.28, 10.28, 10.28, 10.28, 10.28, 10.73, 10.73, 10.73, 10.73, 10.73, 10.73, 11.18, 11.18, 11.18, 11.18, 11.18, 11.18, 11.18, 11.18, 11.62, 11.62, 11.62, 11.62, 11.62, 11.62, 11.62, 12.07, 12.07, 12.07, 12.07, 12.07, 12.07, 12.07, 12.07, 12.07, 12.52, 12.52, 12.52, 12.96, 12.96, 12.96, 12.96, 13.41, 13.41, 13.41, 13.41, 13.41, 13.41, 13.41, 12.96, 12.96, 12.96, 13.41, 13.41, 13.41, 13.86, 13.86, 13.86, 13.86, 13.86, 13.86, 13.86, 13.86, 14.3, 14.3, 14.75, 14.75, 14.75, 14.75, 14.75, 15.2, 15.2, 15.2, 15.2, 15.2, 15.2, 15.65, 15.65, 15.65, 15.65, 15.65, 15.65, 15.65, 15.65, 15.65, 15.65, 15.65, 15.2, 15.2, 15.2, 15.65, 15.65, 15.65, 15.65, 15.65, 9.83, 9.83, 10.28, 10.28, 10.28, 10.28, 10.28, 10.28, 10.28, 10.73, 10.73, 10.73, 10.73, 10.73, 11.18, 11.18, 11.18, 11.18, 11.18, 11.18, 11.18, 11.18, 11.18, 11.62, 11.62, 11.62, 11.62, 11.62, 11.62, 11.62, 11.62, 12.07, 12.07, 12.07, 12.07, 12.07, 12.07, 12.07, 12.52, 12.96, 12.52, 12.52, 12.52, 12.96, 13.41, 13.41, 13.41, 13.41, 13.41, 13.41, 13.41, 13.41, 12.96, 12.96, 12.96, 12.96, 13.41, 13.41, 13.41, 13.86, 13.86, 13.86, 13.86, 13.86, 13.86, 14.3, 14.3, 14.3, 14.3, 14.75, 14.75, 14.75, 14.75, 15.2, 15.2, 15.2, 15.2, 15.2, 15.2, 15.65, 15.65, 15.65, 15.65, 15.65, 15.65, 15.65, 15.65, 15.65, 15.65, 15.2, 15.2, 15.2, 15.2, 15.65, 15.65, 15.65, 15.65, 15.65, 9.83, 9.83, 9.83, 10.28, 10.28, 10.28, 10.28, 10.28, 10.28, 10.28, 10.73, 10.73, 10.73, 10.73, 10.73, 11.18, 11.18, 11.18, 11.18, 11.18, 11.18, 11.18, 11.62, 11.62, 11.18, 11.62, 11.62, 11.62, 11.62, 11.62, 11.62, 12.07, 12.07, 12.07, 12.07, 12.07, 12.07, 12.07, 12.52, 12.52, 12.52, 12.52, 12.52, 12.96, 13.41, 13.41, 13.41, 13.41, 13.41, 13.41, 13.41, 13.41, 12.96, 12.96, 12.96, 12.96, 13.41, 13.41, 13.41, 13.86, 13.86, 13.86, 13.86, 13.86, 14.3, 14.3, 14.3, 14.3, 14.3, 14.3, 14.75, 14.75, 14.75, 15.2, 15.2, 15.2, 15.2, 15.65, 15.2, 15.2, 15.65, 15.65, 15.65, 15.65, 15.65, 15.65, 15.65, 15.65, 15.2, 15.2, 15.2, 15.2, 15.65, 15.65, 15.65, 15.65, 15.65, 15.65, 9.83, 9.83, 9.83, 9.83, 10.28, 10.28, 10.28, 10.28, 10.28, 10.28, 10.28, 10.73, 10.73, 10.73, 10.73, 10.73, 10.73, 10.73, 11.18, 11.18, 11.18, 11.18, 11.18, 11.62, 11.18, 11.62, 11.62, 11.62, 11.62, 11.62, 12.07, 12.07, 12.07, 11.62, 11.62, 11.62, 12.07, 12.07, 12.52, 12.52, 12.52, 12.52, 12.52, 12.96, 13.41, 13.41, 13.41, 13.41, 13.41, 13.41, 12.96, 12.96, 12.96, 12.96, 12.96, 12.96, 13.41, 13.41, 13.86, 13.86, 13.86, 13.86, 13.86, 13.86, 14.3, 14.3, 14.3, 14.3, 14.3, 14.3, 14.75, 14.75, 14.75, 14.75, 15.2, 15.2, 15.2, 15.65, 15.2, 15.2, 15.65, 15.65, 15.65, 15.65, 15.65, 15.65, 15.65, 15.2, 15.2, 15.2, 15.2, 15.2, 15.65, 15.65, 15.65, 15.65, 15.65, 15.65, 9.83, 9.83, 9.83, 9.83, 9.83, 9.83, 10.28, 10.28, 10.28, 10.28, 10.28, 10.28, 10.28, 10.73, 10.73, 10.73, 10.73, 10.73, 10.73, 10.73, 10.73, 11.18, 11.18, 11.18, 11.18, 11.18, 11.18, 11.62, 11.62, 11.62, 11.62, 12.07, 11.62, 11.62, 11.62, 12.07, 12.07, 12.07, 12.07, 12.07, 12.52, 12.52, 12.96, 12.96, 12.96, 13.41, 13.41, 13.41, 13.41, 13.41, 12.96, 12.96, 12.96, 12.96, 12.96, 13.41, 13.41, 13.41, 13.86, 13.86, 13.86, 13.86, 13.86, 14.3, 14.3, 14.3, 14.3, 14.3, 14.75, 14.75, 14.75, 14.75, 15.2, 15.2, 15.2, 15.2, 15.2, 15.2, 15.2, 15.2, 15.2, 15.65, 15.2, 15.65, 15.65, 15.65, 15.65, 15.2, 15.2, 15.2, 15.2, 15.2, 15.65, 15.2, 15.2, 15.65, 15.65, 15.2, 9.83, 9.83, 9.83, 9.83, 9.83, 9.83, 9.83, 9.83, 10.28, 10.28, 10.28, 10.28, 10.28, 10.28, 10.28, 10.73, 10.73, 10.73, 10.73, 10.73, 10.73, 10.73, 11.18, 11.18, 11.18, 11.18, 11.18, 11.62, 11.62, 11.62, 11.62, 11.62, 11.62, 11.62, 11.62, 11.62, 12.07, 12.07, 12.07, 12.07, 12.52, 12.52, 12.96, 12.96, 12.96, 12.96, 13.41, 13.41, 13.41, 12.96, 12.96, 12.96, 12.96, 12.96, 13.41, 13.41, 13.41, 13.86, 13.86, 13.86, 13.86, 13.86, 14.3, 14.3, 14.3, 14.3, 14.3, 14.3, 14.75, 14.75, 14.75, 15.2, 15.2, 15.2, 15.2, 15.2, 15.2, 15.2, 15.2, 15.2, 15.2, 15.2, 15.2, 15.65, 15.65, 15.65, 15.65, 15.2, 15.2, 15.2, 15.2, 15.2, 15.2, 15.2, 15.2, 15.2, 15.2, 15.2, 9.39, 9.83, 9.83, 9.83, 9.83, 9.83, 9.83, 9.83, 9.83, 9.83, 10.28, 10.28, 10.28, 10.28, 10.28, 10.28, 10.28, 10.28, 10.28, 10.73, 10.73, 10.73, 10.73, 11.18, 11.18, 11.18, 11.18, 11.62, 11.62, 11.18, 11.18, 11.62, 11.62, 11.62, 11.62, 11.62, 11.62, 12.07, 12.07, 12.07, 12.52, 12.52, 12.52, 12.96, 12.96, 12.96, 12.96, 12.96, 12.96, 12.96, 12.96, 12.96, 12.96, 12.96, 13.41, 13.41, 13.41, 13.86, 13.86, 13.86, 13.86, 13.86, 14.3, 14.3, 14.3, 14.3, 14.3, 14.75, 14.75, 14.75, 14.75, 14.75, 15.2, 15.2, 15.2, 15.2, 15.2, 15.2, 15.2, 15.2, 15.2, 15.2, 15.2, 15.2, 15.65, 15.65, 15.2, 15.2, 15.2, 15.2, 15.2, 15.2, 15.2, 15.65, 15.2, 15.2, 15.2, 15.2, 9.39, 9.39, 9.39, 9.83, 9.83, 9.83, 9.83, 9.83, 9.83, 9.83, 9.83, 9.83, 10.28, 10.28, 10.28, 10.28, 10.28, 10.28, 10.28, 10.28, 10.73, 10.73, 10.73, 10.73, 10.73, 11.18, 11.18, 11.62, 11.62, 11.18, 11.18, 11.18, 11.18, 11.18, 11.18, 11.62, 11.62, 12.07, 12.07, 12.07, 12.07, 12.52, 12.52, 12.52, 12.96, 12.96, 12.96, 12.96, 12.96, 12.96, 12.96, 12.96, 12.96, 12.96, 13.41, 13.41, 13.41, 13.41, 13.86, 13.86, 13.86, 13.86, 14.3, 14.3, 14.3, 14.3, 14.3, 14.3, 14.3, 14.3, 14.75, 14.75, 14.75, 15.2, 15.2, 15.2, 15.2, 15.2, 15.2, 15.2, 15.2, 15.2, 15.2, 15.2, 15.65, 15.2, 15.2, 15.2, 15.2, 15.2, 15.2, 15.2, 15.2, 15.2, 15.2, 15.2, 15.2, 15.2, 9.39, 9.39, 9.39, 9.39, 9.83, 9.83, 9.83, 9.83, 9.83, 9.83, 9.83, 9.83, 9.83, 9.83, 9.83, 9.83, 9.83, 9.83, 10.28, 10.28, 10.28, 10.28, 10.28, 10.73, 10.73, 10.73, 11.18, 11.18, 11.18, 10.73, 10.73, 10.73, 11.18, 11.18, 11.18, 11.18, 11.62, 11.62, 11.62, 12.07, 12.07, 12.07, 12.52, 12.52, 12.52, 12.96, 12.96, 12.96, 12.96, 12.96, 12.96, 12.96, 12.96, 12.96, 12.96, 13.41, 13.41, 13.86, 13.86, 13.86, 13.86, 13.86, 14.3, 14.3, 14.3, 14.3, 14.3, 14.3, 14.3, 14.3, 14.75, 14.75, 14.75, 14.75, 14.75, 14.75, 15.2, 15.2, 15.2, 15.2, 15.2, 15.2, 15.2, 15.2, 15.2, 15.2, 15.2, 15.2, 15.2, 15.2, 15.2, 15.2, 15.2, 15.2, 15.2, 15.2, 15.2, 15.2, 9.39, 9.39, 9.39, 9.39, 9.83, 9.83, 9.83, 9.83, 9.83, 9.83, 9.83, 9.83, 9.83, 9.83, 9.83, 9.83, 9.83, 9.83, 9.83, 10.28, 10.28, 10.28, 10.28, 10.28, 10.73, 10.73, 10.73, 10.73, 10.73, 10.73, 10.73, 10.73, 10.73, 10.73, 11.18, 11.18, 11.18, 11.62, 11.62, 11.62, 12.07, 12.07, 12.07, 12.52, 12.52, 12.52, 12.52, 12.96, 12.96, 12.96, 12.96, 12.96, 12.96, 12.96, 12.96, 13.41, 13.41, 13.41, 13.86, 13.86, 13.86, 13.86, 14.3, 14.3, 14.3, 14.3, 14.3, 14.3, 14.3, 14.3, 14.75, 14.75, 15.2, 14.75, 14.75, 14.75, 15.2, 15.2, 15.2, 15.2, 15.2, 15.2, 15.2, 15.2, 15.2, 15.2, 15.2, 15.2, 15.2, 15.2, 15.2, 15.2, 15.2, 15.2, 15.2, 15.2, 15.2, 15.2, 9.39, 9.39, 9.39, 9.39, 9.83, 9.83, 9.83, 9.83, 9.83, 9.83, 9.83, 9.83, 9.83, 9.83, 9.83, 9.83, 9.83, 9.83, 10.28, 10.28, 10.28, 10.28, 10.28, 10.28, 10.73, 10.73, 10.73, 10.73, 10.73, 10.73, 10.73, 10.73, 10.73, 10.73, 11.18, 11.18, 11.18, 11.62, 11.62, 11.62, 11.62, 12.07, 12.07, 12.07, 12.52, 12.52, 12.52, 12.96, 12.96, 12.96, 12.96, 12.96, 12.96, 12.96, 13.41, 13.41, 13.41, 13.41, 13.41, 13.86, 13.86, 13.86, 14.3, 14.3, 14.3, 14.3, 14.3, 14.3, 14.3, 14.75, 14.75, 14.75, 15.2, 14.75, 14.75, 14.75, 14.75, 15.2, 15.2, 15.2, 15.2, 15.2, 15.2, 15.2, 15.2, 15.2, 14.75, 15.2, 15.2, 14.75, 15.2, 15.2, 15.2, 15.2, 15.2, 15.2, 14.75, 14.75, 9.39, 9.39, 9.39, 9.83, 9.83, 9.83, 9.83, 9.83, 9.83, 9.83, 9.83, 9.83, 9.83, 9.83, 9.83, 9.83, 9.83, 10.28, 10.28, 10.28, 10.28, 10.28, 10.28, 10.28, 10.73, 10.73, 10.73, 10.73, 10.73, 10.73, 10.73, 10.73, 10.73, 11.18, 11.18, 11.18, 11.18, 11.62, 11.62, 11.62, 11.62, 12.07, 12.07, 12.07, 12.52, 12.52, 12.52, 12.96, 12.96, 12.96, 12.96, 12.96, 12.96, 13.41, 13.41, 13.41, 13.41, 13.41, 13.86, 13.86, 13.86, 14.3, 14.3, 14.3, 14.3, 14.3, 14.3, 14.75, 14.75, 14.75, 14.75, 14.75, 14.75, 14.75, 14.75, 14.75, 14.75, 15.2, 15.2, 15.2, 15.2, 15.2, 15.2, 15.2, 15.2, 15.2, 15.2, 14.75, 15.2, 14.75, 14.75, 15.2, 15.2, 15.2, 15.2, 14.75, 14.75, 14.75, 9.39, 9.39, 9.83, 9.83, 9.83, 9.83, 9.83, 9.83, 9.83, 9.83, 10.28, 10.28, 10.28, 9.83, 9.83, 9.83, 10.28, 10.28, 10.28, 10.28, 10.28, 10.73, 10.73, 10.73, 10.73, 10.73, 10.73, 11.18, 11.18, 11.18, 10.73, 11.18, 11.18, 11.18, 11.18, 11.62, 11.62, 11.62, 11.62, 11.62, 11.62, 12.07, 12.07, 12.07, 12.52, 12.52, 12.96, 12.96, 13.41, 13.41, 13.41, 13.41, 13.41, 13.41, 13.41, 13.41, 13.86, 13.86, 13.86, 14.3, 14.3, 14.3, 14.3, 14.75, 14.75, 14.75, 14.75, 14.75, 14.75, 14.75, 14.75, 14.75, 14.75, 14.75, 14.75, 14.75, 14.75, 15.2, 15.2, 15.2, 15.2, 15.2, 15.2, 15.2, 15.2, 15.2, 15.2, 15.2, 14.75, 14.75, 14.75, 15.2, 15.2, 14.75, 15.2, 14.75, 14.75, 14.75, 9.83, 9.83, 9.83, 9.83, 9.83, 9.83, 9.83, 9.83, 9.83, 10.28, 10.28, 10.28, 10.28, 10.28, 10.28, 10.28, 10.28, 10.28, 10.28, 10.73, 10.73, 10.73, 10.73, 10.73, 10.73, 11.18, 11.18, 11.18, 11.18, 11.18, 11.18, 11.18, 11.18, 11.62, 11.62, 11.62, 11.62, 11.62, 12.07, 12.07, 12.07, 12.07, 12.07, 12.52, 12.52, 12.96, 12.96, 13.41, 13.41, 13.41, 13.41, 13.41, 13.41, 13.41, 13.41, 13.86, 13.86, 14.3, 14.3, 14.3, 14.3, 14.3, 14.3, 14.75, 14.75, 14.75, 14.75, 14.75, 14.75, 14.3, 14.75, 14.75, 14.75, 14.75, 14.75, 14.75, 14.75, 15.2, 15.2, 15.2, 15.2, 15.2, 15.2, 15.2, 15.2, 15.2, 15.2, 15.2, 15.2, 14.75, 14.75, 15.2, 15.2, 14.75, 14.75, 15.2, 15.2, 15.2, 9.83, 9.83, 9.83, 9.83, 9.83, 9.83, 9.83, 10.28, 10.28, 10.28, 10.28, 10.28, 10.28, 10.28, 10.28, 10.28, 10.73, 10.73, 10.73, 10.73, 10.73, 10.73, 11.18, 11.18, 11.18, 11.18, 11.18, 11.18, 11.62, 11.62, 11.62, 11.62, 11.62, 12.07, 12.07, 12.07, 12.07, 12.07, 12.07, 12.52, 12.52, 12.52, 12.52, 12.96, 12.96, 12.96, 13.41, 13.41, 13.41, 13.41, 13.86, 13.86, 13.86, 13.86, 13.86, 13.86, 14.3, 14.3, 14.3, 14.3, 14.3, 14.3, 14.75, 14.75, 14.75, 14.75, 14.75, 14.75, 14.75, 14.75, 14.75, 14.75, 14.75, 14.75, 14.75, 15.2, 14.75, 15.2, 15.2, 15.2, 15.2, 15.2, 15.2, 15.2, 15.2, 15.2, 15.2, 15.2, 15.2, 15.2, 15.2, 15.2, 15.2, 15.2, 15.2, 15.2, 15.2, 15.2, 9.83, 9.83, 9.83, 9.83, 9.83, 10.28, 10.28, 10.28, 10.28, 10.28, 10.28, 10.73, 10.73, 10.73, 10.73, 10.73, 10.73, 10.73, 10.73, 10.73, 10.73, 11.18, 11.18, 11.18, 11.18, 11.18, 11.62, 11.62, 11.62, 11.62, 12.07, 12.07, 12.07, 12.07, 12.52, 12.52, 12.52, 12.96, 12.96, 12.96, 12.96, 12.96, 12.96, 13.41, 13.41, 13.41, 13.86, 13.86, 13.86, 13.86, 13.86, 13.86, 13.86, 13.86, 13.86, 13.86, 14.3, 14.3, 14.3, 14.3, 14.3, 14.3, 14.3, 14.3, 14.75, 14.75, 14.75, 14.75, 14.75, 15.2, 14.75, 14.75, 14.75, 15.2, 15.2, 15.2, 15.2, 14.75, 14.75, 14.75, 14.75, 14.75, 15.2, 15.2, 15.2, 15.2, 15.2, 15.2, 15.2, 15.2, 15.2, 14.75, 15.2, 15.2, 15.2, 15.2, 15.2, 15.2, 10.28, 10.28, 10.28, 10.28, 10.28, 10.28, 10.28, 10.28, 10.28, 10.73, 10.73, 10.73, 10.73, 10.73, 10.73, 10.73, 10.73, 11.18, 11.18, 11.18, 11.18, 11.18, 11.62, 11.62, 11.62, 11.62, 11.62, 11.62, 12.07, 12.07, 12.07, 12.52, 12.52, 12.52, 12.96, 12.96, 12.96, 13.41, 13.41, 13.41, 13.41, 13.41, 13.41, 13.86, 13.86, 13.86, 13.86, 13.86, 14.3, 14.3, 14.3, 14.3, 14.3, 14.3, 14.3, 14.3, 14.3, 14.3, 14.3, 14.75, 14.75, 14.75, 14.3, 14.3, 14.3, 14.75, 14.75, 14.75, 15.2, 15.2, 15.2, 15.2, 14.75, 15.2, 14.75, 14.75, 14.75, 14.75, 14.75, 14.75, 14.75, 14.75, 15.2, 15.2, 15.2, 15.2, 15.2, 15.2, 15.2, 15.2, 15.2, 15.2, 15.2, 15.2, 15.2, 15.2, 15.2, 15.2, 10.28, 10.28, 10.28, 10.28, 10.28, 10.28, 10.28, 10.73, 10.73, 10.73, 10.73, 10.73, 10.73, 10.73, 10.73, 11.18, 11.18, 11.18, 11.18, 11.18, 11.62, 11.62, 11.62, 11.62, 11.62, 11.62, 12.07, 12.07, 12.07, 12.52, 12.52, 12.52, 12.96, 12.96, 13.41, 13.41, 13.41, 13.41, 13.86, 13.86, 13.86, 13.86, 13.86, 14.3, 14.3, 14.3, 14.3, 14.3, 14.3, 14.3, 14.3, 14.3, 14.3, 14.3, 14.3, 14.3, 14.3, 14.75, 14.75, 14.75, 14.75, 14.75, 14.75, 14.75, 14.75, 14.75, 14.75, 14.75, 14.75, 15.2, 15.2, 15.2, 14.75, 14.75, 14.75, 14.3, 14.75, 14.75, 14.75, 14.75, 14.75, 14.75, 14.75, 15.2, 15.2, 15.2, 15.2, 15.2, 15.2, 15.2, 15.2, 15.2, 15.2, 15.2, 15.2, 15.2, 15.2, 15.2, 10.73, 10.73, 10.73, 10.73, 10.73, 10.73, 10.73, 10.73, 10.73, 10.73, 10.73, 11.18, 11.18, 11.18, 11.18, 11.18, 11.18, 11.18, 11.18, 11.62, 11.62, 11.62, 11.62, 11.62, 12.07, 12.07, 12.07, 12.07, 12.52, 12.52, 12.96, 12.96, 12.96, 13.41, 13.41, 13.86, 13.86, 13.86, 13.86, 13.86, 14.3, 14.3, 14.3, 14.3, 14.3, 14.75, 14.75, 14.75, 14.75, 14.75, 14.75, 14.75, 14.75, 14.75, 14.75, 14.75, 14.75, 14.75, 14.75, 14.75, 14.75, 14.75, 14.75, 14.75, 14.75, 14.75, 14.75, 14.75, 14.75, 15.2, 15.2, 14.75, 15.2, 15.2, 14.75, 14.75, 14.75, 14.75, 15.2, 15.2, 14.75, 14.75, 14.75, 14.75, 14.75, 14.75, 15.2, 15.2, 14.75, 15.2, 15.2, 15.2, 15.2, 15.2, 15.2, 15.2, 15.2, 15.2, 10.73, 10.73, 10.73, 10.73, 10.73, 10.73, 11.18, 11.18, 11.18, 11.18, 11.18, 11.18, 11.18, 11.18, 11.18, 11.62, 11.62, 11.62, 11.62, 11.62, 11.62, 12.07, 12.07, 12.07, 12.07, 12.07, 12.07, 12.52, 12.52, 12.96, 12.96, 13.41, 13.41, 13.41, 13.86, 13.86, 13.86, 13.86, 14.3, 14.3, 14.3, 14.3, 14.75, 14.75, 14.75, 14.75, 15.2, 15.2, 15.2, 15.2, 15.2, 15.2, 15.2, 15.2, 15.2, 15.2, 15.2, 15.2, 15.2, 15.2, 15.2, 15.2, 14.75, 14.75, 15.2, 14.75, 14.75, 15.2, 15.2, 15.2, 15.2, 14.75, 15.2, 15.65, 15.2, 15.2, 15.2, 15.2, 15.2, 15.2, 15.2, 14.75, 14.75, 14.75, 14.75, 14.75, 14.75, 14.75, 14.75, 14.75, 15.2, 15.2, 15.2, 15.2, 15.2, 15.2, 15.2, 15.2, 11.18, 11.18, 11.18, 11.18, 11.18, 11.18, 11.18, 11.18, 11.62, 11.62, 11.62, 11.62, 11.62, 11.62, 11.62, 11.62, 11.62, 11.62, 12.07, 12.07, 12.07, 12.07, 12.07, 12.07, 12.52, 12.52, 12.52, 12.52, 12.96, 12.96, 13.41, 13.41, 13.41, 13.86, 13.86, 13.86, 14.3, 14.3, 14.3, 14.3, 14.3, 14.75, 14.75, 14.75, 15.2, 15.2, 15.2, 15.2, 15.65, 15.65, 15.65, 15.65, 15.65, 15.65, 15.65, 15.65, 15.65, 15.65, 15.2, 15.2, 15.65, 15.65, 15.2, 15.2, 15.2, 15.2, 15.2, 15.2, 15.2, 15.2, 15.2, 15.2, 15.2, 15.2, 15.2, 15.2, 15.2, 15.2, 14.75, 14.75, 14.75, 14.75, 14.75, 14.75, 14.75, 14.75, 14.75, 14.75, 14.75, 14.75, 14.75, 15.2, 15.2, 15.2, 15.2, 15.2, 15.2, 15.2, 11.18, 11.18, 11.18, 11.18, 11.62, 11.62, 11.62, 11.62, 11.62, 11.62, 12.07, 12.07, 12.07, 12.07, 12.07, 12.07, 12.07, 12.07, 12.07, 12.07, 12.52, 12.52, 12.52, 12.52, 12.52, 12.52, 12.96, 12.96, 12.96, 13.41, 13.41, 13.41, 13.86, 13.86, 13.86, 14.3, 14.3, 14.3, 14.3, 14.3, 14.3, 14.75, 14.75, 14.75, 15.2, 15.2, 15.2, 15.65, 15.65, 15.65, 15.65, 15.65, 15.65, 15.65, 15.65, 15.65, 15.65, 15.65, 15.65, 15.65, 15.65, 15.65, 15.65, 15.65, 15.2, 15.2, 15.2, 15.2, 15.2, 15.2, 15.2, 15.2, 14.75, 14.75, 15.2, 14.75, 14.75, 14.75, 14.75, 14.75, 14.75, 14.75, 14.75, 14.75, 14.75, 14.75, 14.75, 14.75, 14.75, 14.75, 14.75, 14.75, 15.2, 15.2, 15.2, 15.2, 15.2, 15.2, 11.62, 11.62, 11.62, 11.62, 11.62, 11.62, 12.07, 12.07, 12.07, 12.07, 12.07, 12.07, 12.52, 12.52, 12.52, 12.52, 12.52, 12.52, 12.52, 12.52, 12.52, 12.96, 12.96, 12.96, 12.96, 12.96, 12.96, 12.96, 13.41, 13.41, 13.41, 13.86, 13.86, 14.3, 14.3, 14.3, 14.3, 14.3, 14.3, 14.3, 14.3, 14.75, 14.75, 14.75, 15.2, 15.2, 15.2, 15.2, 15.65, 15.65, 15.65, 15.65, 15.65, 15.65, 15.65, 15.65, 15.65, 15.65, 15.65, 15.65, 15.65, 15.65, 15.65, 15.65, 15.2, 15.2, 15.2, 15.2, 15.2, 15.2, 15.2, 14.75, 14.75, 14.75, 14.75, 14.75, 14.75, 14.75, 14.75, 14.75, 14.75, 14.75, 14.75, 14.75, 14.75, 14.75, 14.75, 14.75, 14.75, 14.75, 14.75, 14.75, 14.75, 15.2, 15.2, 15.2, 15.2, 15.2, 12.07, 12.07, 12.07, 12.07, 12.07, 12.07, 12.07, 12.52, 12.52, 12.52, 12.52, 12.52, 12.96, 12.96, 12.96, 12.96, 12.96, 12.96, 12.96, 12.96, 12.96, 12.96, 12.96, 12.96, 12.96, 13.41, 13.41, 13.41, 13.86, 13.86, 13.86, 13.86, 13.86, 14.3, 14.3, 14.3, 14.3, 14.3, 14.3, 14.3, 14.3, 14.3, 14.75, 14.75, 14.75, 14.75, 14.75, 15.2, 15.2, 15.2, 15.2, 15.2, 15.2, 15.2, 15.2, 15.2, 15.65, 15.65, 15.65, 15.65, 15.2, 15.2, 15.2, 15.2, 15.2, 15.2, 14.75, 14.75, 14.75, 14.75, 14.75, 14.75, 14.75, 14.75, 14.3, 14.3, 14.75, 14.75, 14.75, 14.75, 14.75, 14.75, 14.75, 14.75, 14.75, 14.75, 14.75, 14.75, 14.75, 14.75, 14.75, 14.75, 14.75, 14.75, 14.75, 14.75, 14.75, 14.75, 12.52, 12.52, 12.52, 12.52, 12.52, 12.52, 12.52, 12.52, 12.96, 12.96, 12.96, 12.96, 12.96, 12.96, 13.41, 13.41, 13.41, 13.41, 13.41, 13.41, 13.41, 13.41, 13.41, 13.41, 13.41, 13.86, 13.86, 13.86, 13.86, 13.86, 13.86, 13.86, 14.3, 14.3, 14.3, 14.3, 14.3, 14.3, 14.3, 14.3, 14.3, 14.3, 14.3, 14.75, 14.75, 14.75, 14.75, 14.75, 14.75, 14.75, 14.75, 14.75, 14.75, 14.75, 14.75, 15.2, 15.2, 15.2, 15.2, 15.2, 15.2, 14.75, 15.2, 15.2, 14.75, 14.75, 14.75, 14.75, 14.75, 14.75, 14.3, 14.3, 14.3, 14.75, 14.3, 14.3, 14.3, 14.3, 14.75, 14.75, 14.75, 14.75, 14.75, 14.75, 14.75, 14.75, 14.75, 14.75, 14.75, 14.75, 14.75, 14.75, 14.75, 14.75, 14.75, 14.75, 14.75, 14.75, 12.52, 12.52, 12.52, 12.52, 12.96, 12.96, 12.96, 12.96, 12.96, 12.96, 13.41, 13.41, 13.41, 13.41, 13.41, 13.86, 13.86, 13.86, 13.86, 13.86, 13.86, 13.86, 13.86, 13.86, 13.86, 13.86, 13.86, 13.86, 13.86, 13.86, 13.86, 14.3, 14.3, 14.3, 14.3, 14.3, 14.3, 14.3, 14.3, 14.3, 14.3, 14.3, 14.3, 14.3, 14.75, 14.3, 14.75, 14.75, 14.75, 14.75, 14.3, 14.3, 14.75, 14.75, 14.75, 14.75, 14.75, 14.75, 14.75, 14.75, 14.75, 14.75, 14.75, 14.75, 14.75, 14.75, 14.3, 14.3, 14.75, 14.3, 14.3, 14.3, 14.3, 14.3, 14.75, 14.75, 14.75, 14.3, 14.3, 14.3, 14.75, 14.75, 14.75, 14.75, 14.75, 14.75, 14.75, 14.75, 14.75, 14.75, 14.75, 14.75, 14.75, 14.75, 14.75, 14.75, 14.75, 14.75, 12.96, 12.96, 12.96, 12.96, 12.96, 12.96, 13.41, 13.41, 13.41, 13.41, 13.41, 13.86, 13.86, 13.86, 13.86, 13.86, 13.86, 13.86, 13.86, 13.86, 13.86, 14.3, 14.3, 14.3, 13.86, 13.86, 13.86, 13.86, 14.3, 14.3, 14.3, 14.3, 14.3, 14.3, 14.3, 14.3, 14.3, 14.3, 14.3, 14.3, 14.3, 14.3, 14.3, 14.3, 14.3, 14.3, 14.3, 14.75, 14.75, 14.3, 14.3, 14.3, 14.3, 14.3, 14.3, 14.75, 14.75, 14.3, 14.3, 14.3, 14.3, 14.3, 14.75, 14.3, 14.3, 14.3, 14.3, 14.3, 14.3, 14.3, 14.3, 14.3, 13.86, 14.3, 14.75, 14.75, 14.75, 14.75, 14.3, 14.3, 14.75, 14.75, 14.75, 14.75, 14.75, 14.75, 14.75, 14.75, 14.75, 14.75, 14.75, 14.75, 14.75, 14.75, 14.75, 14.75, 14.3, 14.3, 13.41, 13.41, 13.41, 13.41, 13.41, 13.41, 13.41, 13.41, 13.41, 13.86, 13.86, 13.86, 13.86, 14.3, 14.3, 14.3, 14.3, 14.3, 14.3, 14.3, 14.3, 14.3, 14.3, 14.3, 14.3, 14.3, 14.3, 14.3, 14.3, 14.3, 14.3, 14.3, 14.3, 14.3, 14.3, 14.3, 14.3, 14.3, 13.86, 14.3, 14.3, 14.3, 14.3, 14.3, 14.3, 14.3, 14.3, 14.3, 14.3, 14.3, 14.3, 13.86, 13.86, 14.3, 14.3, 14.3, 14.3, 14.3, 14.3, 14.3, 14.3, 14.3, 14.3, 14.3, 14.3, 13.86, 14.3, 14.3, 13.86, 14.3, 14.3, 14.3, 14.3, 14.3, 14.75, 14.75, 14.75, 14.75, 14.3, 14.3, 14.3, 14.75, 14.75, 14.75, 14.75, 14.75, 14.75, 14.75, 14.75, 14.75, 14.75, 14.75, 14.3, 14.3, 14.3, 14.3, 14.3, 14.3, 13.41, 13.41, 13.41, 13.41, 13.86, 13.86, 13.86, 13.86, 13.86, 13.86, 14.3, 14.3, 14.3, 14.3, 14.3, 14.3, 14.75, 14.75, 14.75, 14.75, 14.75, 14.75, 14.3, 14.3, 14.3, 14.3, 14.3, 14.3, 14.3, 14.3, 14.3, 14.3, 14.3, 14.3, 14.3, 14.3, 14.3, 14.3, 13.86, 14.3, 14.3, 14.3, 14.3, 14.3, 14.3, 14.3, 14.3, 14.3, 14.3, 14.3, 14.3, 14.3, 13.86, 14.3, 13.86, 13.86, 13.86, 13.86, 13.86, 13.86, 13.86, 14.3, 14.3, 14.3, 13.86, 13.86, 13.86, 14.3, 13.86, 13.86, 14.3, 14.3, 14.3, 14.3, 14.3, 14.75, 15.2, 14.75, 14.3, 14.3, 14.3, 14.3, 14.75, 14.75, 14.75, 14.75, 14.75, 14.75, 14.75, 14.75, 14.75, 14.3, 14.3, 14.3, 14.3, 14.3, 14.3, 14.3, 13.86, 13.86, 13.86, 13.86, 13.86, 13.86, 13.86, 13.86, 14.3, 14.3, 14.3, 14.3, 14.75, 14.75, 14.75, 14.75, 14.75, 14.75, 14.75, 14.75, 14.75, 14.75, 14.75, 14.3, 14.3, 14.3, 14.3, 14.3, 14.3, 14.3, 14.3, 14.3, 14.3, 14.3, 14.3, 14.3, 14.3, 14.3, 14.3, 14.3, 14.3, 14.3, 14.3, 14.3, 14.3, 14.3, 14.3, 14.3, 14.3, 14.3, 14.3, 14.3, 14.3, 14.3, 13.86, 13.86, 13.86, 13.86, 13.86, 13.86, 13.86, 13.86, 13.86, 13.86, 13.86, 13.86, 13.86, 14.3, 14.3, 14.3, 14.3, 14.3, 14.3, 14.3, 14.3, 14.75, 14.75, 14.75, 14.75, 14.75, 14.3, 14.3, 14.3, 14.3, 14.3, 14.75, 14.75, 14.75, 14.75, 14.75, 14.75, 14.3, 14.3, 14.3, 14.3, 14.3, 14.3, 14.3, 13.86, 13.86, 13.86, 14.3, 14.3, 14.3, 14.3, 14.3, 14.3, 14.3, 14.3, 14.75, 14.75, 14.75, 15.2, 15.2, 15.2, 15.2, 15.2, 14.75, 14.75, 14.75, 14.75, 14.75, 14.75, 14.75, 14.75, 14.75, 14.75, 14.75, 14.3, 14.3, 14.3, 14.3, 14.3, 14.3, 14.3, 14.3, 14.3, 14.3, 14.3, 14.3, 14.3, 14.3, 14.3, 14.3, 14.3, 14.3, 14.3, 14.3, 14.3, 14.3, 14.3, 14.3, 13.86, 13.86, 13.86, 13.86, 13.86, 13.86, 13.86, 13.86, 13.86, 13.86, 13.86, 13.86, 13.86, 13.86, 14.3, 14.3, 14.3, 14.3, 14.3, 14.3, 14.3, 14.3, 14.75, 14.75, 14.75, 14.3, 14.3, 14.3, 14.3, 14.3, 14.3, 14.3, 14.3, 14.75, 14.75, 14.75, 14.3, 14.3, 14.3, 14.3, 14.3, 14.3, 14.3, 14.3, 14.3, 14.3, 14.3, 14.3, 14.3, 14.3, 14.3, 14.3, 14.3, 14.75, 14.75, 14.75, 14.75, 15.2, 15.2, 15.2, 15.2, 15.2, 15.2, 15.2, 15.2, 14.75, 14.75, 14.75, 14.75, 14.75, 14.75, 14.75, 14.75, 14.75, 14.75, 14.75, 14.75, 14.75, 14.3, 14.3, 14.3, 14.3, 14.3, 14.3, 14.3, 14.3, 14.3, 14.3, 14.3, 14.3, 14.3, 14.3, 14.3, 14.3, 14.3, 14.3, 14.3, 14.3, 13.86, 13.86, 13.86, 13.86, 13.86, 13.86, 13.86, 13.86, 13.86, 13.86, 13.86, 13.86, 13.86, 13.86, 14.3, 14.3, 14.3, 14.3, 13.86, 14.3, 14.3, 14.3, 14.3, 14.3, 14.3, 14.3, 14.3, 14.3, 13.86, 13.86, 13.86, 13.86, 14.3, 14.3, 14.3, 14.3, 14.3, 14.3, 14.3, 14.3, 14.3, 14.3, 14.3, 14.3, 14.3, 14.3, 14.75, 14.75, 14.75, 14.75, 14.75, 14.75, 14.75, 14.75, 14.75, 14.75, 15.2, 15.2, 15.2, 15.2, 15.2, 15.2, 15.2, 15.2, 15.2, 15.2, 14.75, 14.75, 14.75, 14.75, 14.75, 14.75, 14.75, 14.75, 14.75, 14.75, 14.75, 14.75, 14.75, 14.75, 14.3, 14.3, 14.3, 14.3, 14.3, 14.3, 14.3, 14.3, 14.3, 14.3, 14.3, 14.3, 14.3, 14.3, 13.86, 13.86, 13.86, 13.86, 13.86, 13.86, 13.86, 13.86, 13.86, 13.86, 13.86, 13.86, 13.86, 13.86, 13.86, 13.86, 13.86, 13.86, 13.86, 14.3, 14.3, 14.3, 13.86, 13.86, 14.3, 14.3, 13.86, 13.86, 13.86, 13.86, 14.3, 13.86, 13.86, 13.86, 13.41, 13.41, 13.86, 13.86, 14.3, 14.3, 14.3, 14.3, 14.3, 14.3, 14.3, 14.3, 14.3, 14.3, 14.75, 14.75, 14.75, 14.75, 14.75, 14.75, 14.75, 14.75, 14.75, 14.75, 15.2, 15.2, 15.2, 15.2, 15.2, 15.2, 15.2, 15.2, 15.2, 15.2, 15.2, 15.2, 15.2, 15.2, 14.75, 14.75, 14.75, 14.75, 14.75, 14.75, 14.75, 14.75, 14.75, 14.75, 14.75, 14.75, 14.3, 14.3, 14.3, 14.3, 14.3, 14.3, 14.3, 14.3, 14.3, 14.3, 14.3, 14.3, 14.3, 13.86, 13.86, 13.86, 13.86, 13.86, 13.86, 13.86, 13.41, 13.41, 13.86, 13.86, 13.86, 13.86, 13.41, 13.86, 13.86, 13.86, 13.86, 13.86, 13.86, 14.3, 14.3, 14.3, 13.86, 13.86, 13.86, 13.86, 13.86, 13.86, 13.86, 13.86, 13.86, 13.86, 13.86, 13.86, 13.41, 13.41, 13.41, 13.86, 13.86, 13.86, 13.86, 14.3, 14.3, 13.86, 13.86, 13.86, 13.86, 14.3, 15.2, 15.2, 15.2, 15.2, 15.2, 15.2, 15.2, 15.2, 15.2, 15.2, 15.65, 15.65, 15.65, 15.65, 15.65, 15.65, 15.65, 15.65, 15.65, 15.65, 15.65, 15.2, 15.2, 15.2, 15.2, 15.2, 15.2, 15.2, 15.2, 15.2, 14.75, 14.75, 14.75, 14.75, 14.75, 14.75, 14.75, 14.3, 14.3, 14.3, 14.3, 14.3, 14.3, 14.3, 14.3, 14.3, 14.3, 14.3, 14.3, 13.86, 13.86, 13.86, 13.86, 13.86, 13.41, 13.41, 13.41, 13.41, 13.41, 13.41, 13.41, 13.41, 13.41, 13.41, 13.86, 13.86, 13.86, 13.86, 13.86, 14.3, 14.3, 14.3, 13.86, 13.86, 13.86, 13.86, 13.86, 13.86, 13.41, 13.41, 13.41, 13.41, 13.41, 13.41, 13.41, 13.41, 13.41, 13.41, 13.41, 13.86, 13.86, 13.86, 13.86, 13.86, 13.86, 13.86, 13.86, 13.86, 15.2, 15.2, 15.65, 15.65, 15.65, 15.65, 15.65, 15.65, 15.65, 15.65, 15.65, 15.65, 15.65, 15.65, 15.65, 15.65, 15.65, 15.65, 15.65, 15.65, 15.65, 15.65, 15.65, 15.2, 15.2, 15.2, 15.2, 15.2, 15.2, 15.2, 15.2, 15.2, 14.75, 14.75, 14.75, 14.75, 14.75, 14.3, 14.3, 14.3, 14.3, 14.3, 14.3, 14.3, 14.3, 14.3, 14.3, 14.3, 14.3, 13.86, 13.86, 13.41, 13.41, 13.41, 13.41, 13.41, 13.41, 13.41, 13.41, 13.41, 13.41, 13.41, 13.41, 13.41, 13.41, 13.86, 13.86, 13.86, 13.86, 13.86, 14.3, 14.3, 13.86, 13.86, 13.86, 13.86, 13.86, 13.86, 13.86, 13.86, 13.41, 13.41, 13.41, 13.41, 13.41, 13.41, 13.41, 13.41, 13.41, 13.41, 13.41, 13.41, 13.41, 13.41, 13.41, 13.41, 13.41, 13.41, 15.65, 15.65, 15.65, 15.65, 15.65, 16.09, 15.65, 15.65, 16.09, 16.09, 16.09, 16.09, 16.09, 16.09, 16.09, 16.09, 16.09, 16.09, 16.09, 15.65, 15.65, 15.65, 15.65, 15.65, 15.2, 15.2, 15.2, 15.2, 15.2, 15.2, 15.2, 15.2, 15.2, 14.75, 14.75, 14.75, 14.75, 14.75, 14.3, 14.3, 14.3, 14.3, 14.3, 14.3, 14.3, 14.3, 14.3, 14.3, 13.86, 13.86, 13.86, 13.41, 13.41, 13.41, 13.41, 13.41, 13.41, 13.41, 13.41, 13.41, 13.41, 13.41, 13.41, 13.41, 13.86, 13.86, 13.86, 13.86, 13.86, 13.86, 14.3, 14.3, 14.3, 13.86, 13.86, 13.86, 13.41, 13.86, 13.86, 13.86, 13.86, 13.41, 13.41, 13.41, 13.41, 13.41, 13.41, 12.96, 12.96, 12.96, 13.41, 13.41, 13.41, 13.41, 13.41, 13.41, 13.41, 13.41, 16.09, 16.09, 16.09, 16.09, 16.09, 16.09, 16.09, 16.54, 16.54, 16.09, 16.09, 16.09, 16.09, 16.09, 16.09, 16.09, 16.09, 16.09, 16.09, 16.09, 16.09, 16.09, 15.65, 15.65, 15.65, 15.65, 15.2, 15.2, 15.2, 15.2, 15.2, 15.2, 15.2, 14.75, 14.75, 14.75, 14.75, 14.75, 14.75, 14.3, 14.3, 14.3, 14.3, 14.3, 14.3, 14.3, 14.3, 14.3, 13.86, 13.86, 13.86, 13.41, 13.41, 13.41, 13.41, 13.41, 13.41, 13.41, 13.41, 13.41, 13.41, 13.41, 13.41, 13.41, 13.86, 13.86, 13.86, 13.86, 14.3, 14.3, 14.3, 14.3, 14.3, 13.86, 13.86, 13.86, 13.86, 13.86, 13.86, 13.86, 13.86, 13.86, 13.41, 13.41, 13.41, 13.41, 13.41, 13.41, 12.96, 12.96, 12.96, 12.96, 13.41, 13.41, 13.41, 12.96, 12.96, 12.96, 16.09, 16.09, 16.09, 16.09, 16.54, 16.54, 16.54, 16.54, 16.54, 16.54, 16.54, 16.54, 16.54, 16.54, 16.54, 16.54, 16.54, 16.54, 16.54, 16.09, 16.09, 16.09, 16.09, 15.65, 15.65, 15.65, 15.65, 15.65, 15.65, 15.65, 15.2, 15.2, 15.2, 15.2, 14.75, 14.75, 14.75, 14.75, 14.75, 14.3, 14.3, 14.3, 14.3, 14.3, 14.3, 14.3, 14.3, 14.3, 14.3, 13.86, 13.86, 13.86, 13.41, 13.41, 13.41, 13.41, 13.41, 13.41, 13.41, 13.41, 13.41, 13.41, 13.41, 13.86, 13.86, 13.86, 13.86, 13.86, 14.3, 14.3, 13.86, 14.3, 14.3, 14.3, 14.3, 14.3, 13.86, 13.86, 13.86, 13.86, 13.86, 13.86, 13.86, 13.41, 13.41, 13.41, 13.41, 13.41, 13.41, 12.96, 12.96, 12.96, 12.96, 12.96, 12.96, 12.96, 12.96, 12.96, 16.09, 16.09, 16.54, 16.54, 16.54, 16.99, 16.99, 16.99, 16.99, 16.99, 16.99, 16.54, 16.99, 16.99, 16.99, 16.99, 16.54, 16.54, 16.54, 16.54, 16.54, 16.09, 16.09, 16.09, 16.09, 15.65, 15.65, 15.65, 15.65, 15.65, 15.65, 15.2, 15.2, 15.2, 15.2, 15.2, 14.75, 14.75, 14.75, 14.75, 14.3, 14.3, 14.3, 14.3, 14.3, 14.3, 14.3, 14.3, 14.3, 13.86, 13.86, 13.86, 13.41, 13.41, 13.41, 13.41, 13.41, 13.41, 13.41, 13.41, 13.41, 13.41, 13.41, 13.86, 13.86, 13.86, 13.86, 13.86, 14.3, 14.3, 14.3, 14.3, 14.3, 14.3, 14.3, 14.3, 13.86, 13.86, 13.86, 13.86, 13.86, 13.86, 13.86, 13.86, 13.41, 13.41, 13.41, 13.41, 13.41, 13.41, 12.96, 12.96, 12.96, 12.96, 12.96, 12.96, 12.96, 12.96, 16.54, 16.54, 16.54, 16.54, 16.99, 16.99, 16.99, 16.99, 16.99, 16.99, 16.99, 16.99, 16.99, 16.99, 16.99, 16.99, 16.99, 16.99, 16.99, 16.54, 16.54, 16.54, 16.54, 16.09, 16.09, 16.09, 15.65, 15.65, 15.65, 15.65, 15.65, 15.65, 15.65, 15.2, 15.2, 15.2, 15.2, 14.75, 14.75, 14.75, 14.75, 14.3, 14.3, 14.3, 14.3, 14.3, 14.3, 14.3, 14.3, 13.86, 13.86, 13.86, 13.86, 13.41, 13.41, 13.41, 13.41, 13.41, 13.41, 13.41, 13.41, 13.41, 13.86, 13.86, 13.86, 13.86, 13.86, 14.3, 14.3, 14.3, 14.3, 14.3, 14.3, 14.3, 14.3, 14.3, 14.3, 13.86, 13.86, 13.86, 13.86, 13.86, 13.86, 13.86, 13.86, 13.41, 13.41, 13.41, 13.41, 13.41, 12.96, 12.96, 12.96, 12.96, 12.96, 12.96, 12.96, 12.96, 16.54, 16.54, 16.54, 16.99, 16.99, 17.43, 17.43, 17.43, 17.43, 17.43, 17.43, 17.43, 16.99, 16.99, 16.99, 16.99, 16.99, 16.99, 16.99, 16.99, 16.99, 16.54, 16.54, 16.54, 16.09, 16.09, 16.09, 16.09, 15.65, 15.65, 15.65, 15.65, 15.65, 15.65, 15.2, 15.2, 15.2, 15.2, 14.75, 14.75, 14.75, 14.3, 14.3, 14.3, 14.3, 14.3, 14.3, 14.3, 14.3, 14.3, 13.86, 13.86, 13.86, 13.86, 13.41, 13.41, 13.41, 13.41, 13.41, 13.41, 13.41, 13.86, 13.86, 13.86, 13.86, 13.86, 13.86, 14.3, 14.3, 14.3, 14.3, 14.3, 14.3, 14.3, 14.3, 14.3, 14.3, 14.3, 13.86, 13.86, 13.86, 13.41, 13.86, 13.86, 13.86, 13.86, 13.41, 13.41, 13.41, 13.41, 13.41, 12.96, 12.96, 12.96, 12.96, 12.96, 12.96, 12.96, 16.99, 16.99, 16.99, 16.99, 17.43, 17.43, 17.43, 17.43, 17.43, 17.43, 17.43, 17.43, 17.43, 17.43, 17.43, 17.43, 17.43, 16.99, 16.99, 16.99, 16.99, 16.99, 16.54, 16.54, 16.54, 16.54, 16.09, 16.09, 16.09, 15.65, 15.65, 15.65, 15.65, 15.65, 15.65, 15.2, 15.2, 15.2, 15.2, 14.75, 14.75, 14.75, 14.75, 14.3, 14.3, 14.3, 14.3, 14.3, 14.3, 14.3, 14.3, 13.86, 13.86, 13.86, 13.86, 13.86, 13.86, 13.86, 13.86, 13.86, 13.86, 13.86, 13.86, 13.86, 13.86, 13.86, 14.3, 14.3, 14.3, 14.3, 14.3, 14.3, 14.3, 14.3, 14.3, 14.3, 14.3, 14.3, 14.3, 13.86, 13.86, 13.86, 13.86, 13.86, 13.86, 13.86, 13.41, 13.41, 13.41, 13.41, 13.41, 13.41, 12.96, 12.96, 12.96, 12.96, 12.96, 12.96, 16.99, 16.99, 17.43, 17.43, 17.43, 17.43, 17.43, 17.88, 17.88, 17.88, 17.43, 17.43, 17.43, 17.43, 17.43, 17.43, 17.43, 17.43, 17.43, 16.99, 16.99, 16.99, 16.99, 16.99, 16.54, 16.54, 16.54, 16.09, 16.09, 16.09, 16.09, 16.09, 15.65, 15.65, 15.65, 15.65, 15.2, 15.2, 15.2, 14.75, 14.75, 14.75, 14.75, 14.75, 14.3, 14.3, 14.3, 14.3, 14.3, 14.3, 14.3, 13.86, 13.86, 13.86, 13.86, 13.86, 13.86, 13.86, 13.86, 13.86, 13.86, 13.86, 13.86, 13.86, 13.86, 14.3, 14.3, 14.3, 14.3, 14.3, 14.3, 14.3, 14.3, 14.3, 14.3, 14.3, 14.3, 14.3, 14.3, 13.86, 13.86, 13.86, 13.86, 13.41, 13.86, 13.86, 13.86, 13.86, 13.41, 13.41, 13.41, 13.41, 13.41, 12.96, 12.96, 12.96, 12.96, 12.96, 16.99, 17.43, 17.43, 17.43, 17.43, 17.43, 17.88, 17.88, 17.88, 17.88, 17.88, 17.88, 17.88, 17.88, 17.88, 17.43, 17.43, 17.43, 17.43, 17.43, 17.43, 16.99, 16.99, 16.99, 16.99, 16.54, 16.54, 16.54, 16.09, 16.09, 16.09, 16.09, 16.09, 16.09, 15.65, 15.65, 15.65, 15.2, 15.2, 15.2, 14.75, 14.75, 14.75, 14.75, 14.75, 14.3, 14.3, 14.3, 14.3, 14.3, 14.3, 14.3, 13.86, 13.86, 13.86, 13.86, 13.86, 13.86, 13.86, 13.86, 13.86, 13.86, 13.86, 14.3, 14.3, 14.3, 14.3, 14.3, 14.3, 14.3, 14.3, 14.3, 14.3, 14.3, 14.3, 14.3, 14.3, 14.3, 13.86, 13.86, 13.86, 13.86, 13.86, 13.86, 13.86, 13.86, 13.41, 13.86, 13.41, 13.41, 13.41, 13.41, 13.41, 12.96, 12.96, 12.96, 12.96, 12.96, 17.43, 17.43, 17.43, 17.43, 17.88, 17.88, 17.88, 17.88, 17.88, 17.88, 17.88, 17.88, 17.88, 17.88, 17.88, 17.88, 17.88, 17.88, 17.43, 17.43, 17.43, 17.43, 16.99, 16.99, 16.99, 16.54, 16.54, 16.54, 16.54, 16.54, 16.09, 16.09, 16.09, 16.09, 16.09, 15.65, 15.65, 15.65, 15.2, 15.2, 15.2, 14.75, 14.75, 14.75, 14.75, 14.75, 14.75, 14.3, 14.3, 14.3, 14.3, 14.3, 14.3, 14.3, 14.3, 13.86, 13.86, 13.86, 13.86, 13.86, 13.86, 13.86, 14.3, 14.3, 14.3, 14.3, 14.3, 14.3, 14.3, 14.3, 14.3, 14.3, 14.3, 14.3, 14.3, 14.3, 14.3, 14.3, 13.86, 13.86, 13.86, 13.86, 13.86, 13.86, 13.86, 13.86, 13.41, 13.41, 13.41, 13.41, 13.41, 13.41, 13.41, 12.96, 12.96, 12.96, 12.96, 12.96, 17.88, 17.88, 17.88, 17.88, 17.88, 17.88, 17.88, 18.33, 18.33, 18.33, 18.33, 18.33, 17.88, 17.88, 17.88, 17.88, 17.88, 17.88, 17.88, 17.88, 17.43, 17.43, 17.43, 16.99, 16.99, 16.99, 16.54, 16.54, 16.54, 16.54, 16.54, 16.54, 16.09, 16.09, 16.09, 16.09, 15.65, 15.65, 15.65, 15.2, 15.2, 15.2, 14.75, 14.75, 14.75, 14.75, 14.75, 14.75, 14.75, 14.3, 14.3, 14.3, 14.3, 14.3, 14.3, 14.3, 14.3, 14.3, 14.3, 14.3, 14.3, 14.3, 14.3, 14.3, 14.3, 14.3, 14.3, 14.3, 14.3, 14.3, 14.3, 14.3, 14.3, 14.3, 14.3, 14.3, 14.3, 14.3, 13.86, 13.86, 13.86, 13.86, 13.86, 13.86, 14.3, 13.86, 13.86, 13.41, 13.41, 13.41, 13.41, 13.41, 13.41, 12.96, 12.96, 12.96, 12.96, 12.96, 17.88, 17.88, 17.88, 17.88, 17.88, 18.33, 18.33, 18.33, 18.33, 18.33, 18.33, 18.33, 18.33, 18.33, 18.33, 18.33, 17.88, 17.88, 17.88, 17.88, 17.88, 17.43, 17.43, 16.99, 16.99, 16.99, 16.99, 16.99, 16.54, 16.54, 16.54, 16.54, 16.54, 16.09, 16.09, 16.09, 15.65, 15.65, 15.65, 15.2, 15.2, 15.2, 15.2, 14.75, 14.75, 14.75, 14.75, 14.75, 14.75, 14.75, 14.3, 14.3, 14.3, 14.3, 14.3, 14.3, 14.3, 14.3, 14.3, 14.3, 14.3, 14.3, 14.3, 14.3, 14.3, 14.3, 14.3, 14.3, 14.3, 14.3, 14.3, 14.3, 14.3, 14.3, 14.3, 14.3, 14.3, 14.3, 13.86, 13.86, 13.86, 13.86, 13.86, 13.86, 14.3, 13.86, 13.86, 13.41, 13.41, 13.41, 13.41, 13.41, 13.41, 12.96, 12.96, 12.96, 12.96, 12.96, 18.33, 18.33, 18.33, 18.33, 18.33, 18.33, 18.33, 18.33, 18.33, 18.33, 18.33, 18.33, 18.33, 18.33, 18.33, 18.33, 18.33, 18.33, 17.88, 17.88, 17.88, 17.88, 17.43, 17.43, 16.99, 16.99, 16.99, 16.99, 16.99, 16.99, 16.54, 16.54, 16.54, 16.54, 16.09, 16.09, 16.09, 15.65, 15.65, 15.65, 15.2, 15.2, 15.2, 15.2, 14.75, 14.75, 14.75, 14.75, 14.75, 14.75, 14.75, 14.75, 14.3, 14.3, 14.3, 14.3, 14.3, 14.3, 14.3, 14.3, 14.3, 14.3, 14.3, 14.3, 14.3, 14.3, 14.3, 14.3, 14.3, 14.3, 14.3, 14.3, 14.3, 14.3, 14.3, 14.3, 14.3, 14.3, 14.3, 13.86, 13.86, 13.86, 13.86, 13.86, 14.3, 14.3, 13.86, 13.86, 13.41, 13.41, 13.41, 13.41, 12.96, 12.96, 12.96, 12.96, 12.96, 12.96, 18.33, 18.33, 18.33, 18.33, 18.33, 18.33, 18.33, 18.33, 18.33, 18.33, 18.33, 18.33, 18.33, 18.33, 18.33, 18.33, 18.33, 18.33, 18.33, 17.88, 17.88, 17.88, 17.88, 17.43, 17.43, 17.43, 16.99, 16.99, 16.99, 16.99, 16.99, 16.54, 16.54, 16.54, 16.09, 16.09, 16.09, 15.65, 15.65, 15.65, 15.2, 15.2, 15.2, 15.2, 15.2, 14.75, 14.75, 14.75, 14.75, 14.75, 14.75, 14.75, 14.75, 14.3, 14.3, 14.3, 14.3, 14.3, 14.3, 14.3, 14.3, 14.3, 14.3, 14.3, 14.3, 14.3, 14.3, 14.3, 14.75, 14.75, 14.3, 14.3, 14.3, 14.3, 14.3, 14.3, 14.3, 14.3, 14.3, 14.3, 14.3, 13.86, 13.86, 13.86, 13.86, 14.3, 13.86, 13.86, 13.41, 13.41, 13.41, 13.41, 12.96, 12.96, 12.96, 12.52, 12.52, 12.52, 18.33, 18.33, 18.33, 18.33, 18.33, 18.78, 18.78, 18.78, 18.78, 18.78, 18.78, 18.78, 18.33, 18.33, 18.33, 18.33, 18.33, 18.33, 18.33, 18.33, 17.88, 17.88, 17.88, 17.43, 17.43, 17.43, 17.43, 17.43, 16.99, 16.99, 16.99, 16.54, 16.54, 16.54, 16.54, 16.09, 16.09, 16.09, 15.65, 15.65, 15.65, 15.2, 15.2, 15.2, 15.2, 15.2, 14.75, 14.75, 14.75, 14.75, 14.75, 14.75, 14.75, 14.75, 14.3, 14.3, 14.3, 14.3, 14.3, 14.3, 14.3, 14.3, 14.3, 14.3, 14.3, 14.3, 14.3, 14.3, 14.75, 14.75, 14.75, 14.3, 14.3, 14.3, 14.3, 14.3, 14.3, 14.3, 14.3, 14.3, 14.3, 14.3, 14.3, 13.86, 13.86, 13.86, 13.86, 13.86, 13.86, 13.41, 13.41, 13.41, 12.96, 12.96, 12.52, 12.52, 12.52, 12.52, 18.78, 18.78, 18.78, 18.78, 18.78, 18.78, 18.78, 18.78, 18.78, 18.78, 18.78, 18.78, 18.78, 18.33, 18.33, 18.33, 18.33, 18.33, 18.33, 18.33, 18.33, 17.88, 17.88, 17.88, 17.43, 17.43, 17.43, 17.43, 17.43, 16.99, 16.99, 16.99, 16.54, 16.54, 16.54, 16.54, 16.09, 16.09, 16.09, 15.65, 15.65, 15.65, 15.2, 15.2, 15.2, 15.2, 15.2, 14.75, 14.75, 14.75, 14.75, 14.75, 14.75, 14.75, 14.75, 14.75, 14.75, 14.75, 14.75, 14.75, 14.75, 14.75, 14.3, 14.3, 14.3, 14.3, 14.3, 14.3, 14.3, 14.75, 14.75, 14.3, 14.3, 14.3, 14.3, 14.3, 14.3, 14.3, 14.3, 14.3, 14.3, 14.3, 14.3, 13.86, 13.86, 13.86, 13.86, 13.86, 13.41, 13.41, 13.41, 13.41, 12.96, 12.96, 12.52, 12.52, 12.52, 12.52, 18.78, 18.78, 18.78, 18.78, 18.78, 18.78, 18.78, 18.78, 18.78, 18.78, 18.78, 18.78, 18.78, 18.78, 18.78, 18.33, 18.33, 18.33, 18.33, 18.33, 18.33, 18.33, 18.33, 17.88, 17.88, 17.88, 17.43, 17.43, 17.43, 17.43, 16.99, 16.99, 16.99, 16.54, 16.54, 16.54, 16.09, 16.09, 16.09, 15.65, 15.65, 15.65, 15.65, 15.2, 15.2, 15.2, 15.2, 15.2, 14.75, 14.75, 14.75, 14.75, 14.75, 14.75, 14.75, 14.75, 14.75, 14.75, 14.75, 14.75, 14.75, 14.75, 14.3, 14.3, 14.3, 14.3, 14.3, 14.3, 14.3, 14.3, 14.3, 14.3, 14.3, 14.3, 14.3, 14.3, 14.3, 14.3, 14.3, 14.3, 14.3, 14.3, 13.86, 13.86, 13.86, 13.86, 13.86, 13.86, 13.41, 13.41, 13.41, 12.96, 12.96, 12.96, 12.52, 12.52, 12.52, 12.52, 18.78, 18.78, 18.78, 18.78, 18.78, 18.78, 18.78, 19.22, 19.22, 18.78, 18.78, 18.78, 18.78, 18.78, 18.78, 18.78, 18.78, 18.33, 18.33, 18.33, 18.33, 18.33, 18.33, 18.33, 17.88, 17.88, 17.88, 17.43, 17.43, 17.43, 17.43, 16.99, 16.99, 16.99, 16.54, 16.54, 16.54, 16.09, 16.09, 16.09, 15.65, 15.65, 15.65, 15.2, 15.2, 15.2, 15.2, 15.2, 15.2, 15.2, 15.2, 14.75, 14.75, 14.75, 14.75, 14.75, 14.75, 14.75, 14.75, 14.75, 14.75, 14.3, 14.3, 14.3, 14.3, 14.3, 14.3, 14.3, 14.3, 14.3, 14.3, 14.3, 14.3, 14.3, 14.3, 14.3, 13.86, 13.86, 13.86, 13.86, 13.86, 13.86, 13.86, 13.86, 13.86, 13.86, 13.86, 13.86, 13.41, 13.41, 13.41, 12.96, 12.96, 12.52, 12.52, 12.52, 12.52, 12.52, 18.78, 18.78, 18.78, 18.78, 18.78, 18.78, 18.78, 19.22, 19.22, 18.78, 18.78, 18.78, 18.78, 18.78, 18.78, 18.78, 18.78, 18.33, 18.33, 18.33, 18.33, 18.33, 18.33, 18.33, 17.88, 17.88, 17.88, 17.43, 17.43, 17.43, 17.43, 16.99, 16.99, 16.99, 16.54, 16.54, 16.54, 16.09, 16.09, 16.09, 15.65, 15.65, 15.65, 15.2, 15.2, 15.2, 15.2, 15.2, 15.2, 15.2, 15.2, 14.75, 14.75, 14.75, 14.75, 14.75, 14.75, 14.75, 14.75, 14.75, 14.75, 14.3, 14.3, 14.3, 14.3, 14.3, 14.3, 14.3, 14.3, 14.3, 14.3, 14.3, 14.3, 14.3, 14.3, 14.3, 13.86, 13.86, 13.86, 13.86, 13.86, 13.86, 13.86, 13.86, 13.86, 13.86, 13.41, 13.41, 13.41, 13.41, 13.41, 12.96, 12.96, 12.52, 12.52, 12.52, 12.52, 12.52]}, {"header": {"parameterCategory": 1, "parameterNumber": 3, "dx": 0.06612293990616946, "dy": 0.0552356325346848, "nx": 98, "ny": 59, "la1": 35.046912555036876, "la2": 31.78801023549047, "lo1": -121.43107172385933, "lo2": -114.95102361305473, "refTime": "2026041809"}, "data": [-4.92, -4.47, -4.47, -4.47, -4.47, -4.47, -4.47, -4.02, -4.02, -4.02, -4.02, -4.02, -4.02, -3.58, -3.58, -3.58, -3.58, -3.58, -3.58, -3.58, -3.58, -3.58, -3.13, -3.13, -3.13, -3.13, -3.13, -2.68, -2.68, -2.68, -2.24, -2.24, -2.24, -2.24, -1.79, -1.79, -1.79, -1.79, -1.79, -1.79, -1.79, -1.79, -1.79, -2.24, -2.24, -1.79, -0.89, -0.45, -0.45, -0.45, -0.45, -0.45, -0.45, 0.0, 0.0, 0.0, 0.0, 0.0, 0.0, 0.45, 0.45, 0.45, 0.45, 0.45, 0.45, 0.45, 0.45, 0.45, 0.45, 0.45, 0.89, 0.89, 0.89, 0.89, 0.89, 1.34, 1.34, 1.34, 1.34, 1.34, 1.34, 1.79, 1.79, 1.79, 1.79, 1.79, 1.79, 2.24, 2.24, 2.24, 2.68, 2.68, 2.68, 3.13, 3.13, 3.13, 3.13, 3.13, -4.92, -4.47, -4.47, -4.47, -4.47, -4.47, -4.47, -4.02, -4.02, -4.02, -4.02, -4.02, -4.02, -3.58, -3.58, -3.58, -3.58, -3.58, -3.58, -3.58, -3.13, -3.13, -3.13, -3.13, -3.13, -3.13, -2.68, -2.68, -2.68, -2.68, -2.24, -2.24, -2.24, -2.24, -1.79, -1.79, -1.79, -1.79, -1.79, -1.79, -1.79, -2.24, -2.24, -2.24, -1.79, -0.89, -0.45, -0.45, -0.45, -0.45, -0.45, -0.45, -0.45, 0.0, 0.0, 0.0, 0.0, 0.0, 0.0, 0.45, 0.45, 0.45, 0.45, 0.45, 0.45, 0.45, 0.45, 0.45, 0.45, 0.45, 0.89, 0.89, 0.89, 0.89, 0.89, 1.34, 1.34, 1.34, 1.34, 1.34, 1.34, 1.79, 1.79, 1.79, 1.79, 1.79, 1.79, 2.24, 2.24, 2.24, 2.68, 2.68, 2.68, 3.13, 3.13, 3.13, 3.13, 3.13, -4.92, -4.47, -4.47, -4.47, -4.47, -4.47, -4.47, -4.02, -4.02, -4.02, -4.02, -4.02, -3.58, -3.58, -3.58, -3.58, -3.58, -3.58, -3.13, -3.13, -3.13, -3.13, -3.13, -3.13, -3.13, -3.13, -2.68, -2.68, -2.68, -2.68, -2.24, -2.24, -2.24, -2.24, -1.79, -1.79, -1.79, -1.79, -1.79, -1.79, -2.24, -2.24, -2.24, -1.79, -0.89, -0.45, -0.45, -0.45, -0.45, -0.45, -0.45, -0.45, -0.45, 0.0, 0.0, 0.0, 0.0, 0.0, 0.45, 0.45, 0.45, 0.45, 0.45, 0.45, 0.45, 0.45, 0.45, 0.45, 0.45, 0.45, 0.89, 0.89, 0.89, 0.89, 0.89, 0.89, 1.34, 1.34, 1.34, 1.34, 1.34, 1.79, 1.79, 1.79, 1.79, 1.79, 1.79, 2.24, 2.24, 2.68, 2.68, 2.68, 3.13, 3.13, 3.13, 3.13, 3.13, 3.13, -4.92, -4.47, -4.47, -4.47, -4.47, -4.47, -4.47, -4.02, -4.02, -4.02, -4.02, -4.02, -3.58, -3.58, -3.58, -3.58, -3.58, -3.58, -3.13, -3.13, -3.13, -3.13, -3.13, -3.13, -3.13, -3.13, -2.68, -2.68, -2.68, -2.24, -2.24, -2.24, -2.24, -2.24, -1.79, -1.79, -1.79, -1.79, -1.79, -1.79, -1.79, -1.79, -1.34, -0.89, -0.45, -0.45, -0.89, -0.89, -0.89, -0.45, -0.45, -0.45, -0.45, 0.0, 0.0, 0.0, 0.0, 0.0, 0.45, 0.45, 0.45, 0.45, 0.45, 0.45, 0.45, 0.45, 0.45, 0.45, 0.45, 0.89, 0.89, 0.89, 0.89, 0.89, 0.89, 0.89, 1.34, 1.34, 1.34, 1.34, 1.34, 1.34, 1.79, 1.79, 1.79, 1.79, 2.24, 2.24, 2.68, 2.68, 2.68, 3.13, 3.13, 3.13, 2.68, 3.13, 3.13, 3.13, -4.92, -4.47, -4.47, -4.47, -4.47, -4.47, -4.47, -4.02, -4.02, -4.02, -4.02, -4.02, -3.58, -3.58, -3.58, -3.58, -3.58, -3.58, -3.58, -3.13, -3.13, -3.13, -3.13, -3.13, -3.13, -2.68, -2.68, -2.68, -2.24, -2.24, -2.24, -2.24, -1.79, -2.24, -1.79, -1.79, -1.79, -1.79, -1.79, -1.79, -1.79, -1.34, -0.89, -0.89, -0.89, -0.89, -0.89, -0.89, -0.45, -0.45, -0.45, -0.45, 0.0, 0.0, 0.0, 0.0, 0.0, 0.0, 0.45, 0.45, 0.45, 0.45, 0.45, 0.45, 0.45, 0.45, 0.45, 0.45, 0.89, 0.89, 0.89, 0.89, 0.89, 1.34, 1.34, 1.34, 1.34, 1.34, 1.34, 1.34, 1.34, 1.79, 1.79, 1.79, 1.79, 1.79, 2.24, 2.24, 2.68, 2.68, 2.68, 2.68, 2.68, 2.68, 2.68, 3.13, 3.13, 3.58, -4.47, -4.47, -4.47, -4.47, -4.47, -4.47, -4.02, -4.02, -4.02, -4.02, -4.02, -4.02, -3.58, -3.58, -3.58, -3.58, -3.58, -3.58, -3.13, -3.13, -3.13, -3.13, -3.13, -3.13, -2.68, -2.68, -2.68, -2.68, -2.24, -2.24, -2.24, -2.24, -1.79, -1.79, -1.79, -1.79, -1.79, -1.79, -1.34, -1.34, -1.34, -1.34, -0.89, -0.89, -0.89, -0.89, -0.45, -0.45, -0.45, -0.45, -0.45, 0.0, 0.0, 0.0, 0.0, 0.0, 0.0, 0.0, 0.45, 0.45, 0.45, 0.45, 0.45, 0.45, 0.45, 0.45, 0.45, 0.45, 0.89, 0.89, 0.89, 0.89, 0.89, 1.34, 1.34, 1.34, 1.34, 1.34, 1.34, 1.34, 1.34, 1.79, 1.79, 1.79, 1.79, 2.24, 2.24, 2.68, 2.68, 2.68, 2.68, 2.68, 2.68, 2.68, 3.13, 3.13, 3.58, 3.58, -4.47, -4.47, -4.47, -4.47, -4.47, -4.47, -4.02, -4.02, -4.02, -4.02, -4.02, -4.02, -3.58, -3.58, -3.58, -3.58, -3.58, -3.13, -3.13, -3.13, -3.13, -3.13, -2.68, -2.68, -2.68, -2.68, -2.68, -2.24, -2.24, -2.24, -2.24, -2.24, -2.24, -1.79, -1.79, -1.79, -1.79, -1.79, -1.34, -1.34, -1.34, -0.89, -0.89, -0.89, -0.89, -0.89, -0.45, -0.45, -0.45, -0.45, 0.0, 0.0, 0.0, 0.0, 0.0, 0.0, 0.0, 0.45, 0.45, 0.45, 0.45, 0.45, 0.45, 0.45, 0.45, 0.45, 0.45, 0.89, 0.89, 0.89, 0.89, 0.89, 0.89, 0.89, 1.34, 1.34, 1.79, 1.79, 1.79, 1.79, 1.79, 1.79, 1.79, 1.79, 2.24, 2.24, 2.24, 2.68, 2.68, 2.68, 2.68, 2.68, 2.68, 2.68, 3.13, 3.13, 3.58, 3.58, -4.47, -4.47, -4.47, -4.47, -4.47, -4.47, -4.02, -4.02, -4.02, -4.02, -4.02, -3.58, -3.58, -3.58, -3.58, -3.58, -3.13, -3.13, -3.13, -3.13, -3.13, -2.68, -2.68, -2.68, -2.24, -2.24, -2.24, -2.24, -2.24, -2.24, -2.24, -2.24, -2.24, -1.79, -1.79, -1.34, -1.79, -1.79, -1.34, -1.34, -0.89, -0.89, -0.89, -0.89, -0.89, -0.45, -0.45, -0.45, 0.0, 0.0, 0.0, 0.0, 0.0, 0.0, 0.0, 0.45, 0.45, 0.45, 0.45, 0.45, 0.45, 0.45, 0.45, 0.45, 0.45, 0.45, 0.89, 0.89, 0.89, 0.89, 0.89, 0.89, 0.89, 1.34, 1.34, 1.34, 1.34, 1.79, 1.79, 1.79, 2.24, 1.79, 2.24, 2.24, 2.24, 2.24, 2.68, 2.68, 2.68, 2.68, 2.68, 2.68, 2.68, 3.13, 3.13, 3.13, 3.58, 3.58, -4.47, -4.47, -4.47, -4.47, -4.47, -4.02, -4.02, -4.02, -4.02, -4.02, -3.58, -3.58, -3.58, -3.58, -3.58, -3.13, -3.13, -3.13, -3.13, -2.68, -2.68, -2.68, -2.68, -2.24, -2.24, -2.24, -2.24, -2.24, -2.24, -2.24, -2.24, -2.24, -1.79, -1.79, -1.34, -1.34, -1.34, -1.34, -1.34, -0.89, -0.89, -0.89, -0.89, -0.89, -0.45, -0.45, -0.45, 0.0, 0.0, 0.0, 0.0, 0.0, 0.0, 0.45, 0.45, 0.45, 0.45, 0.45, 0.45, 0.45, 0.89, 0.89, 0.89, 0.89, 0.89, 0.89, 0.89, 0.89, 0.89, 0.89, 0.89, 1.34, 1.34, 1.34, 1.34, 1.34, 1.34, 1.34, 1.79, 1.79, 2.24, 2.24, 2.24, 2.24, 2.24, 2.68, 2.68, 2.68, 2.68, 2.68, 2.68, 2.68, 2.68, 3.13, 3.13, 3.13, 3.13, 3.58, -4.47, -4.47, -4.47, -4.47, -4.47, -4.02, -4.02, -4.02, -4.02, -3.58, -3.58, -3.58, -3.58, -3.58, -3.13, -3.13, -3.13, -3.13, -2.68, -2.68, -2.68, -2.68, -2.24, -2.24, -2.24, -2.24, -2.24, -2.24, -2.24, -2.24, -2.24, -2.24, -1.79, -1.79, -1.79, -1.79, -1.34, -1.34, -1.34, -0.89, -0.89, -0.89, -0.89, -0.45, -0.45, -0.45, 0.0, 0.0, 0.0, 0.0, 0.0, 0.0, 0.45, 0.45, 0.45, 0.45, 0.45, 0.45, 0.45, 0.89, 0.89, 0.89, 0.89, 0.89, 0.89, 0.89, 0.89, 0.89, 0.89, 0.89, 0.89, 1.34, 1.34, 1.34, 1.34, 1.34, 1.34, 1.79, 1.79, 1.79, 1.79, 2.24, 2.24, 2.24, 2.68, 2.68, 2.68, 2.68, 2.68, 2.68, 2.68, 2.68, 2.68, 3.13, 3.13, 3.13, 3.58, 3.58, -4.47, -4.47, -4.47, -4.47, -4.02, -4.02, -4.02, -4.02, -4.02, -3.58, -3.58, -3.58, -3.58, -3.13, -3.13, -3.13, -3.13, -2.68, -2.68, -2.68, -2.68, -2.68, -2.24, -2.24, -2.24, -2.24, -2.24, -2.24, -2.24, -2.24, -2.24, -1.79, -1.79, -1.79, -1.34, -1.34, -1.34, -1.34, -1.34, -0.89, -0.89, -0.89, -0.45, -0.45, 0.0, 0.0, 0.0, 0.0, 0.0, 0.45, 0.45, 0.45, 0.45, 0.45, 0.45, 0.45, 0.45, 0.89, 0.89, 0.89, 0.89, 0.89, 0.89, 0.89, 0.89, 0.89, 1.34, 0.89, 0.89, 0.89, 0.89, 1.34, 1.34, 1.34, 1.34, 1.34, 1.79, 1.79, 1.79, 1.79, 1.79, 2.24, 2.24, 2.24, 2.68, 2.68, 2.68, 2.68, 2.68, 2.68, 2.68, 2.68, 2.68, 3.13, 3.13, 3.13, 3.58, 3.58, -4.47, -4.47, -4.47, -4.02, -4.02, -4.02, -4.02, -4.02, -3.58, -3.58, -3.58, -3.58, -3.13, -3.13, -3.13, -3.13, -2.68, -2.68, -2.68, -2.68, -2.68, -2.24, -2.24, -2.24, -2.24, -2.24, -2.24, -2.24, -1.79, -1.79, -1.79, -1.34, -1.34, -1.34, -1.34, -1.34, -0.89, -0.89, -0.89, -0.89, -0.45, -0.45, -0.45, 0.0, 0.0, 0.0, 0.0, 0.0, 0.45, 0.45, 0.45, 0.45, 0.45, 0.45, 0.45, 0.89, 0.89, 0.89, 0.89, 0.89, 0.89, 0.89, 0.89, 0.89, 0.89, 0.89, 1.34, 1.34, 1.34, 1.34, 1.34, 1.34, 1.34, 1.34, 1.34, 1.34, 1.79, 1.79, 1.79, 2.24, 2.24, 2.24, 2.24, 2.24, 2.68, 2.68, 2.68, 2.68, 2.68, 2.68, 2.68, 2.68, 3.13, 3.13, 3.13, 3.58, 3.58, 3.58, -4.47, -4.02, -4.02, -4.02, -4.02, -4.02, -4.02, -3.58, -3.58, -3.58, -3.58, -3.13, -3.13, -3.13, -3.13, -2.68, -2.68, -2.68, -2.68, -2.24, -2.24, -2.24, -2.24, -2.24, -2.24, -2.24, -1.79, -1.79, -1.79, -1.34, -1.34, -1.34, -1.34, -1.34, -0.89, -0.89, -0.89, -0.89, -0.89, -0.45, -0.45, -0.45, -0.45, 0.0, 0.0, 0.0, 0.0, 0.45, 0.45, 0.45, 0.45, 0.45, 0.45, 0.45, 0.45, 0.89, 0.89, 0.89, 1.34, 1.34, 0.89, 0.89, 1.34, 1.34, 1.34, 1.34, 1.34, 1.34, 1.34, 1.34, 1.34, 1.79, 1.79, 1.79, 1.79, 1.79, 1.79, 1.79, 2.24, 2.24, 2.24, 2.24, 2.24, 2.24, 2.68, 2.68, 2.68, 3.13, 3.13, 3.13, 3.13, 3.13, 3.13, 3.13, 3.58, 3.58, 3.58, 3.58, -4.02, -4.02, -4.02, -4.02, -4.02, -4.02, -3.58, -3.58, -3.58, -3.58, -3.13, -3.13, -3.13, -3.13, -2.68, -2.68, -2.68, -2.68, -2.24, -2.24, -2.24, -2.24, -2.24, -2.24, -1.79, -1.79, -1.79, -1.79, -1.34, -1.34, -1.34, -1.34, -1.34, -0.89, -0.89, -0.89, -0.89, -0.89, -0.45, -0.45, -0.45, -0.45, -0.45, 0.0, 0.0, 0.0, 0.0, 0.45, 0.45, 0.45, 0.89, 0.89, 0.89, 0.89, 0.89, 0.89, 0.89, 0.89, 1.34, 1.34, 1.34, 1.34, 1.34, 1.34, 1.34, 1.34, 1.34, 1.34, 1.34, 1.34, 1.34, 1.79, 1.34, 1.34, 1.79, 1.79, 1.79, 2.24, 2.24, 2.24, 2.24, 2.68, 2.68, 2.68, 2.24, 2.68, 2.68, 3.13, 3.13, 3.13, 3.13, 3.13, 3.13, 3.58, 3.58, 3.58, 3.58, 3.58, -4.02, -4.02, -4.02, -4.02, -4.02, -3.58, -3.58, -3.58, -3.58, -3.13, -3.13, -3.13, -3.13, -2.68, -2.68, -2.68, -2.68, -2.68, -2.24, -2.24, -2.24, -2.24, -2.24, -2.24, -1.79, -1.79, -1.79, -1.34, -1.34, -1.34, -1.34, -1.34, -0.89, -0.89, -0.89, -0.89, -0.89, -0.89, -0.45, -0.45, -0.45, 0.0, 0.0, 0.0, 0.0, 0.45, 0.45, 0.45, 0.45, 0.89, 0.45, 0.89, 0.89, 1.34, 1.34, 1.34, 1.34, 1.34, 1.34, 1.34, 1.34, 1.34, 1.34, 1.34, 1.79, 1.79, 1.79, 1.79, 1.79, 1.79, 1.34, 1.34, 1.79, 1.79, 1.79, 1.79, 2.24, 2.24, 2.24, 2.24, 2.24, 2.68, 2.68, 2.68, 2.68, 2.68, 2.68, 2.68, 2.68, 3.13, 3.13, 3.13, 3.58, 3.58, 3.58, 3.58, 3.58, 3.58, -4.02, -4.02, -4.02, -4.02, -3.58, -3.58, -3.58, -3.58, -3.13, -3.13, -3.13, -3.13, -3.13, -2.68, -2.68, -2.68, -2.68, -2.68, -2.24, -2.24, -2.24, -2.24, -2.24, -2.24, -1.79, -1.79, -1.79, -1.34, -1.34, -1.34, -1.34, -0.89, -0.89, -0.89, -0.89, -0.89, -0.89, -0.45, -0.45, -0.45, 0.0, 0.0, 0.0, 0.0, 0.0, 0.45, 0.45, 0.89, 0.89, 0.89, 0.89, 0.89, 0.89, 1.34, 1.34, 1.34, 1.34, 1.34, 1.34, 1.34, 1.34, 1.79, 1.79, 1.79, 1.79, 1.79, 1.79, 1.79, 1.79, 1.79, 1.34, 1.34, 1.79, 1.79, 2.24, 2.24, 2.24, 2.24, 2.24, 2.24, 2.68, 2.68, 2.68, 2.68, 2.68, 2.68, 2.68, 2.68, 2.68, 2.68, 3.13, 3.58, 3.58, 3.58, 3.58, 3.58, 3.58, 3.58, -4.02, -4.02, -4.02, -3.58, -3.58, -3.58, -3.58, -3.58, -3.13, -3.13, -3.13, -3.13, -3.13, -2.68, -2.68, -2.68, -2.68, -2.68, -2.24, -2.24, -2.24, -2.24, -2.24, -1.79, -1.79, -1.79, -1.79, -1.34, -1.34, -1.34, -0.89, -0.89, -0.89, -0.89, -0.89, -0.89, -0.89, -0.45, -0.45, 0.0, 0.0, 0.0, 0.0, 0.0, 0.45, 0.45, 0.45, 0.89, 0.89, 0.89, 1.34, 1.34, 1.34, 1.79, 1.79, 1.79, 1.79, 1.79, 1.79, 1.79, 1.79, 1.79, 2.24, 2.24, 1.79, 1.79, 1.79, 1.79, 1.34, 1.34, 1.79, 1.79, 1.79, 1.79, 2.24, 2.24, 2.24, 2.68, 2.68, 2.68, 2.68, 2.68, 2.68, 2.68, 3.13, 3.13, 3.13, 3.13, 3.13, 3.13, 3.13, 3.58, 3.58, 3.58, 3.58, 3.58, 3.58, 3.58, -4.02, -4.02, -3.58, -3.58, -3.58, -3.58, -3.58, -3.13, -3.13, -3.13, -3.13, -3.13, -2.68, -2.68, -2.68, -2.68, -2.68, -2.68, -2.24, -2.24, -2.24, -2.24, -1.79, -1.79, -1.79, -1.79, -1.34, -1.34, -1.34, -0.89, -0.89, -0.89, -0.89, -0.89, -0.89, -0.89, -0.45, -0.45, -0.45, 0.0, 0.0, 0.0, 0.0, 0.45, 0.45, 0.45, 0.89, 0.89, 0.89, 1.34, 1.34, 1.79, 1.79, 1.79, 1.79, 1.79, 1.79, 1.79, 2.24, 2.24, 2.24, 1.79, 1.79, 1.79, 2.24, 2.24, 2.24, 1.79, 1.34, 1.34, 1.79, 1.79, 1.79, 1.79, 2.24, 2.24, 2.24, 2.24, 2.24, 2.24, 2.68, 2.68, 2.68, 3.13, 3.13, 3.13, 3.13, 3.13, 3.13, 3.13, 3.13, 3.58, 3.58, 3.58, 3.58, 3.58, 3.58, 3.58, -4.02, -4.02, -3.58, -3.58, -3.58, -3.58, -3.13, -3.13, -3.13, -3.13, -3.13, -3.13, -2.68, -2.68, -2.68, -2.68, -2.68, -2.68, -2.24, -2.24, -2.24, -1.79, -1.79, -1.79, -1.79, -1.79, -1.34, -1.34, -1.34, -0.89, -0.89, -0.89, -0.89, -0.89, -0.89, -0.45, -0.45, -0.45, -0.45, 0.0, 0.0, 0.0, 0.0, 0.45, 0.45, 0.89, 0.89, 1.34, 1.34, 1.34, 1.79, 1.79, 1.79, 1.79, 1.79, 1.79, 1.79, 1.79, 1.79, 1.79, 1.79, 1.79, 1.79, 1.79, 1.79, 1.79, 1.79, 1.79, 1.79, 1.79, 1.79, 1.79, 1.79, 1.79, 1.79, 1.79, 1.79, 1.79, 2.24, 2.24, 2.68, 3.13, 3.13, 3.13, 3.13, 3.58, 3.58, 3.58, 3.58, 3.58, 3.58, 3.58, 3.58, 3.58, 3.58, 3.58, 3.58, 3.58, -4.02, -3.58, -3.58, -3.58, -3.58, -3.58, -3.13, -3.13, -3.13, -3.13, -3.13, -3.13, -2.68, -2.68, -2.68, -2.68, -2.68, -2.24, -2.24, -2.24, -2.24, -1.79, -1.79, -1.79, -1.79, -1.79, -1.34, -1.34, -1.34, -0.89, -0.89, -0.89, -0.89, -0.89, -0.89, -0.45, -0.45, -0.45, 0.0, 0.0, 0.0, 0.0, 0.0, 0.45, 0.45, 0.89, 0.89, 1.34, 1.34, 1.34, 1.79, 1.79, 1.79, 1.79, 1.79, 1.79, 1.79, 1.79, 1.79, 1.79, 1.79, 1.79, 1.79, 1.79, 1.79, 1.79, 1.79, 1.79, 2.24, 2.24, 2.24, 2.24, 1.79, 1.79, 1.79, 1.79, 1.79, 1.79, 2.24, 2.24, 2.68, 3.13, 3.13, 3.13, 3.13, 3.58, 3.58, 3.58, 3.58, 3.58, 3.58, 3.58, 3.58, 3.58, 3.58, 3.58, 3.58, 3.58, -4.02, -3.58, -3.58, -3.58, -3.58, -3.13, -3.13, -3.13, -3.13, -3.13, -3.13, -2.68, -2.68, -2.68, -2.68, -2.68, -2.68, -2.24, -2.24, -2.24, -2.24, -1.79, -1.79, -1.79, -1.79, -1.34, -1.34, -1.34, -1.34, -0.89, -0.89, -0.89, -0.89, -0.89, -0.45, -0.45, -0.45, 0.0, 0.0, 0.0, 0.0, 0.0, 0.45, 0.45, 0.45, 0.89, 0.89, 1.34, 1.34, 1.34, 1.79, 1.79, 1.79, 1.79, 1.79, 1.79, 1.79, 1.79, 1.79, 1.79, 1.79, 1.79, 1.79, 1.79, 1.79, 1.79, 1.79, 1.79, 1.79, 2.24, 2.24, 2.24, 2.24, 1.79, 1.34, 1.34, 1.79, 2.24, 2.24, 2.24, 2.68, 2.68, 3.13, 3.13, 3.13, 3.13, 3.58, 3.58, 3.58, 3.58, 3.58, 3.58, 3.58, 3.58, 3.58, 3.58, 4.02, 4.02, -4.02, -3.58, -3.58, -3.58, -3.58, -3.13, -3.13, -3.13, -3.13, -3.13, -3.13, -2.68, -2.68, -2.68, -2.68, -2.68, -2.24, -2.24, -2.24, -2.24, -2.24, -1.79, -1.79, -1.79, -1.79, -1.34, -1.34, -1.34, -0.89, -0.89, -0.89, -0.89, -0.45, -0.45, -0.45, -0.45, 0.0, 0.0, 0.0, 0.0, 0.0, 0.45, 0.45, 0.45, 0.89, 0.89, 0.89, 1.34, 1.34, 1.34, 1.79, 1.79, 1.79, 1.79, 1.79, 1.79, 1.79, 1.79, 2.24, 1.79, 1.79, 1.79, 1.79, 1.79, 1.79, 1.79, 1.79, 1.79, 1.79, 1.79, 1.79, 1.79, 1.79, 1.79, 1.79, 1.79, 2.24, 2.24, 2.24, 2.24, 2.24, 2.68, 2.68, 2.68, 3.13, 3.13, 3.13, 3.13, 3.58, 3.58, 3.58, 4.02, 4.02, 4.02, 4.02, 4.02, 4.02, 4.02, -3.58, -3.58, -3.58, -3.58, -3.58, -3.13, -3.13, -3.13, -3.13, -3.13, -2.68, -2.68, -2.68, -2.68, -2.68, -2.68, -2.24, -2.24, -2.24, -2.24, -2.24, -1.79, -1.79, -1.79, -1.34, -1.34, -1.34, -1.34, -0.89, -0.89, -0.89, -0.45, -0.45, -0.45, -0.45, 0.0, 0.0, 0.0, 0.0, 0.0, 0.0, 0.45, 0.45, 0.89, 0.89, 0.89, 1.34, 1.34, 1.34, 1.34, 1.79, 1.79, 1.79, 1.79, 1.79, 1.79, 1.79, 1.79, 1.79, 2.24, 2.24, 1.79, 1.79, 1.79, 1.79, 1.79, 1.79, 1.79, 1.79, 1.79, 1.79, 1.79, 1.79, 2.24, 2.24, 2.24, 2.24, 2.68, 2.68, 2.68, 2.68, 2.68, 2.68, 2.68, 2.68, 3.13, 3.13, 3.13, 3.58, 3.58, 3.58, 4.02, 4.02, 4.02, 4.02, 4.02, 4.02, 4.02, -3.58, -3.58, -3.58, -3.58, -3.58, -3.13, -3.13, -3.13, -3.13, -3.13, -2.68, -2.68, -2.68, -2.68, -2.68, -2.68, -2.24, -2.24, -2.24, -2.24, -1.79, -1.79, -1.79, -1.34, -1.34, -1.34, -1.34, -0.89, -0.89, -0.89, -0.89, -0.45, -0.45, -0.45, 0.0, 0.0, 0.0, 0.0, 0.0, 0.0, 0.45, 0.45, 0.89, 0.89, 0.89, 1.34, 1.34, 1.34, 1.34, 1.34, 1.34, 1.79, 1.79, 1.79, 1.79, 1.79, 1.79, 1.79, 1.79, 1.79, 2.24, 2.24, 1.79, 2.24, 1.79, 1.79, 1.79, 2.24, 2.24, 2.24, 2.24, 1.79, 2.24, 2.68, 2.68, 2.68, 2.68, 2.68, 2.68, 2.68, 2.68, 2.68, 2.68, 2.68, 2.68, 2.68, 3.13, 3.13, 3.13, 3.58, 3.58, 4.02, 4.02, 4.02, 4.02, 4.02, 4.47, 4.47, -3.58, -3.58, -3.58, -3.58, -3.58, -3.13, -3.13, -3.13, -3.13, -3.13, -2.68, -2.68, -2.68, -2.68, -2.68, -2.24, -2.24, -2.24, -2.24, -2.24, -1.79, -1.79, -1.79, -1.34, -1.34, -1.34, -1.34, -0.89, -0.89, -0.89, -0.45, -0.45, -0.45, 0.0, 0.0, 0.0, 0.0, 0.0, 0.0, 0.45, 0.45, 0.89, 0.89, 0.89, 1.34, 1.34, 1.34, 1.34, 1.34, 1.34, 1.79, 1.79, 1.79, 1.79, 1.79, 1.79, 1.79, 2.24, 1.79, 1.79, 2.24, 2.24, 2.24, 2.24, 2.24, 2.24, 2.24, 2.24, 2.24, 2.24, 2.24, 2.24, 2.24, 2.68, 2.68, 2.68, 2.68, 2.68, 2.68, 2.68, 2.68, 2.68, 2.68, 3.13, 3.13, 3.13, 3.13, 3.13, 3.13, 3.13, 3.58, 3.58, 4.02, 4.02, 4.02, 4.47, 4.47, 4.47, -3.58, -3.58, -3.58, -3.58, -3.58, -3.13, -3.13, -3.13, -3.13, -3.13, -2.68, -2.68, -2.68, -2.68, -2.68, -2.24, -2.24, -2.24, -2.24, -1.79, -1.79, -1.79, -1.79, -1.34, -1.34, -1.34, -1.34, -0.89, -0.89, -0.89, -0.45, -0.45, -0.45, 0.0, 0.0, 0.0, 0.0, 0.0, 0.45, 0.45, 0.89, 0.89, 1.34, 1.34, 1.34, 1.34, 1.34, 1.34, 1.79, 1.79, 1.79, 1.79, 1.79, 1.79, 2.24, 2.24, 2.24, 2.24, 1.79, 1.79, 1.79, 2.24, 2.24, 2.24, 1.79, 2.24, 1.79, 1.79, 2.24, 2.24, 2.24, 2.24, 2.24, 2.24, 2.68, 2.68, 2.68, 2.68, 2.68, 2.68, 2.68, 2.68, 2.68, 3.13, 3.13, 3.13, 3.13, 3.13, 3.13, 3.58, 3.58, 3.58, 4.02, 4.02, 4.02, 4.47, 4.47, 4.47, -3.58, -3.58, -3.58, -3.58, -3.58, -3.13, -3.13, -3.13, -3.13, -2.68, -2.68, -2.68, -2.68, -2.68, -2.68, -2.24, -2.24, -2.24, -2.24, -1.79, -1.79, -1.79, -1.79, -1.34, -1.34, -1.34, -0.89, -0.89, -0.89, -0.89, -0.45, -0.45, 0.0, 0.0, 0.0, 0.0, 0.0, 0.45, 0.45, 0.89, 0.89, 1.34, 1.34, 1.34, 1.34, 1.79, 1.79, 1.79, 1.79, 1.79, 1.79, 1.79, 2.24, 2.24, 2.24, 2.24, 2.24, 2.24, 2.24, 2.24, 1.79, 1.79, 1.79, 2.24, 2.24, 1.79, 1.79, 1.79, 2.24, 2.24, 2.24, 2.24, 2.24, 2.24, 2.68, 2.68, 2.68, 2.68, 2.68, 2.68, 2.68, 2.68, 3.13, 3.13, 3.13, 3.13, 3.13, 3.58, 3.58, 3.58, 3.58, 3.58, 4.02, 4.02, 4.02, 4.47, 4.47, 4.47, -3.58, -3.58, -3.58, -3.58, -3.58, -3.13, -3.13, -3.13, -3.13, -2.68, -2.68, -2.68, -2.68, -2.68, -2.68, -2.24, -2.24, -2.24, -2.24, -1.79, -1.79, -1.79, -1.79, -1.34, -1.34, -1.34, -0.89, -0.89, -0.89, -0.45, -0.45, -0.45, 0.0, 0.0, 0.0, 0.0, 0.45, 0.45, 0.89, 0.89, 1.34, 1.34, 1.79, 1.79, 1.79, 1.79, 2.24, 1.79, 1.79, 2.24, 2.24, 2.24, 2.24, 2.24, 2.24, 2.24, 1.79, 1.79, 1.79, 2.24, 2.24, 1.79, 1.79, 1.79, 1.79, 1.79, 2.24, 2.24, 2.24, 2.24, 2.24, 2.68, 2.68, 2.68, 2.24, 2.24, 2.24, 2.68, 2.68, 2.68, 2.68, 3.13, 3.13, 3.13, 3.13, 3.58, 3.58, 3.58, 3.58, 3.58, 4.02, 4.02, 4.02, 4.02, 4.02, 4.47, 4.47, 4.47, -3.58, -3.58, -3.58, -3.58, -3.13, -3.13, -3.13, -3.13, -3.13, -2.68, -2.68, -2.68, -2.68, -2.68, -2.24, -2.24, -2.24, -2.24, -2.24, -1.79, -1.79, -1.79, -1.79, -1.34, -1.34, -1.34, -0.89, -0.89, -0.89, -0.45, -0.45, -0.45, 0.0, 0.0, 0.0, 0.0, 0.45, 0.45, 0.89, 0.89, 1.34, 1.34, 1.79, 1.79, 1.79, 1.79, 2.24, 2.24, 2.24, 2.24, 2.24, 2.24, 2.24, 2.24, 2.24, 2.24, 2.24, 1.79, 2.24, 2.24, 2.24, 1.79, 1.79, 1.79, 1.79, 1.79, 2.24, 2.24, 2.24, 2.24, 2.24, 2.24, 2.68, 2.68, 2.68, 2.24, 2.24, 2.24, 2.68, 3.13, 3.13, 3.13, 3.13, 3.13, 3.58, 3.58, 3.58, 3.58, 4.02, 4.02, 4.02, 4.02, 4.47, 4.02, 4.47, 4.47, 4.47, 4.47, -3.58, -3.58, -3.58, -3.58, -3.13, -3.13, -3.13, -3.13, -3.13, -2.68, -2.68, -2.68, -2.68, -2.68, -2.24, -2.24, -2.24, -2.24, -2.24, -1.79, -1.79, -1.79, -1.34, -1.34, -1.34, -1.34, -0.89, -0.89, -0.89, -0.45, -0.45, -0.45, 0.0, 0.0, 0.0, 0.0, 0.45, 0.45, 0.89, 0.89, 1.34, 1.34, 1.79, 1.79, 1.79, 2.24, 2.24, 2.24, 2.24, 2.24, 2.24, 2.24, 2.24, 2.24, 2.24, 2.24, 2.24, 2.24, 2.24, 2.24, 2.24, 1.79, 1.79, 1.79, 1.79, 1.79, 1.79, 2.24, 2.24, 2.24, 2.24, 2.24, 2.68, 2.68, 3.13, 2.68, 2.68, 2.68, 2.68, 2.68, 3.13, 3.13, 3.13, 3.58, 3.58, 3.58, 4.02, 4.02, 4.02, 4.02, 4.47, 4.47, 4.47, 4.47, 4.47, 4.47, 4.47, 4.47, -3.58, -3.58, -3.58, -3.58, -3.13, -3.13, -3.13, -3.13, -2.68, -2.68, -2.68, -2.68, -2.68, -2.24, -2.24, -2.24, -2.24, -2.24, -2.24, -1.79, -1.79, -1.79, -1.34, -1.34, -1.34, -0.89, -0.89, -0.89, -0.89, -0.45, -0.45, 0.0, 0.0, 0.0, 0.0, 0.0, 0.45, 0.45, 0.89, 0.89, 1.34, 1.34, 1.79, 1.79, 1.79, 2.24, 2.24, 2.24, 2.24, 2.24, 2.24, 2.24, 2.24, 2.24, 2.24, 2.24, 2.24, 2.24, 2.24, 2.24, 1.79, 1.79, 1.79, 1.79, 2.24, 2.24, 2.24, 1.79, 2.24, 2.24, 2.68, 2.24, 2.24, 2.68, 3.13, 3.13, 3.13, 3.13, 2.68, 2.68, 3.13, 3.13, 3.13, 3.58, 3.58, 4.02, 4.02, 4.02, 4.02, 4.47, 4.47, 4.47, 4.47, 4.47, 4.47, 4.47, 4.92, 4.92, -3.58, -3.58, -3.58, -3.58, -3.13, -3.13, -3.13, -3.13, -2.68, -2.68, -2.68, -2.68, -2.68, -2.24, -2.24, -2.24, -2.24, -2.24, -1.79, -1.79, -1.79, -1.79, -1.34, -1.34, -1.34, -0.89, -0.89, -0.89, -0.45, -0.45, -0.45, 0.0, 0.0, 0.0, 0.0, 0.0, 0.45, 0.45, 0.89, 0.89, 1.34, 1.34, 1.79, 1.79, 1.79, 2.24, 2.24, 2.24, 2.24, 2.24, 2.24, 2.24, 2.24, 2.24, 2.24, 2.24, 2.24, 2.24, 2.24, 2.24, 2.24, 1.79, 1.79, 2.24, 2.24, 2.24, 2.68, 2.24, 2.24, 2.24, 2.68, 2.68, 2.68, 2.68, 2.68, 3.13, 3.13, 3.13, 3.13, 3.13, 3.13, 3.13, 3.13, 3.58, 3.58, 4.02, 4.02, 4.02, 4.02, 4.47, 4.47, 4.47, 4.47, 4.92, 4.92, 4.92, 4.92, 4.92, -3.58, -3.58, -3.58, -3.58, -3.13, -3.13, -3.13, -3.13, -2.68, -2.68, -2.68, -2.68, -2.68, -2.24, -2.24, -2.24, -2.24, -2.24, -1.79, -1.79, -1.79, -1.79, -1.34, -1.34, -1.34, -0.89, -0.89, -0.89, -0.45, -0.45, -0.45, 0.0, 0.0, 0.0, 0.0, 0.0, 0.45, 0.45, 0.89, 0.89, 1.34, 1.34, 1.79, 1.79, 1.79, 2.24, 2.24, 2.24, 2.24, 2.24, 2.24, 2.24, 2.24, 2.24, 2.24, 2.24, 2.24, 2.24, 2.24, 2.24, 2.24, 1.79, 2.24, 2.24, 2.24, 2.24, 2.68, 2.68, 2.68, 2.68, 2.68, 2.68, 2.68, 2.68, 2.68, 3.13, 3.13, 3.13, 3.13, 3.13, 3.13, 3.13, 3.13, 3.58, 3.58, 3.58, 4.02, 4.02, 4.02, 4.47, 4.47, 4.47, 4.47, 4.92, 4.92, 4.92, 4.92, 4.92, -3.58, -3.58, -3.58, -3.58, -3.13, -3.13, -3.13, -3.13, -3.13, -2.68, -2.68, -2.68, -2.68, -2.24, -2.24, -2.24, -2.24, -1.79, -1.79, -1.79, -1.79, -1.79, -1.34, -1.34, -1.34, -0.89, -0.89, -0.89, -0.45, -0.45, -0.45, 0.0, 0.0, 0.0, 0.0, 0.0, 0.45, 0.45, 0.89, 0.89, 1.34, 1.34, 1.34, 1.79, 1.79, 1.79, 2.24, 2.24, 2.24, 2.24, 2.24, 2.24, 2.24, 2.24, 2.24, 2.24, 2.24, 2.24, 2.24, 2.24, 2.24, 2.24, 2.24, 2.24, 2.24, 2.68, 2.68, 2.68, 2.68, 2.68, 2.68, 2.68, 2.68, 3.13, 2.68, 2.68, 3.13, 3.13, 3.13, 3.13, 3.13, 3.13, 3.13, 3.13, 3.58, 3.58, 3.58, 4.02, 4.02, 4.02, 4.47, 4.47, 4.47, 4.92, 4.92, 4.92, 4.92, 4.92, -3.58, -3.58, -3.58, -3.58, -3.13, -3.13, -3.13, -3.13, -3.13, -2.68, -2.68, -2.68, -2.68, -2.24, -2.24, -2.24, -2.24, -1.79, -1.79, -1.79, -1.79, -1.34, -1.34, -1.34, -0.89, -0.89, -0.89, -0.45, -0.45, -0.45, 0.0, 0.0, 0.0, 0.0, 0.0, 0.45, 0.45, 0.45, 0.89, 0.89, 0.89, 1.34, 1.34, 1.79, 1.79, 1.79, 2.24, 2.24, 2.24, 2.24, 2.24, 2.24, 2.24, 2.24, 2.24, 2.24, 2.24, 2.24, 2.24, 2.24, 2.24, 2.24, 2.24, 2.24, 2.68, 2.68, 2.68, 2.68, 2.68, 2.68, 2.68, 2.68, 2.68, 3.13, 3.13, 2.68, 2.68, 3.13, 3.13, 3.13, 3.13, 2.68, 2.68, 3.13, 3.13, 3.58, 3.58, 3.58, 4.02, 4.02, 4.47, 4.47, 4.47, 4.92, 4.92, 4.92, 4.92, 4.92, -3.58, -3.58, -3.58, -3.58, -3.13, -3.13, -3.13, -3.13, -3.13, -2.68, -2.68, -2.68, -2.68, -2.68, -2.24, -2.24, -2.24, -1.79, -1.79, -1.79, -1.79, -1.34, -1.34, -1.34, -0.89, -0.89, -0.89, -0.45, -0.45, -0.45, 0.0, 0.0, 0.0, 0.0, 0.0, 0.45, 0.45, 0.45, 0.89, 0.89, 0.89, 1.34, 1.34, 1.34, 1.79, 1.79, 1.79, 2.24, 2.24, 2.24, 2.24, 2.24, 2.24, 2.24, 2.24, 2.24, 2.24, 2.24, 2.24, 2.24, 2.24, 2.24, 2.24, 2.68, 2.68, 2.68, 2.68, 2.68, 2.68, 2.68, 2.68, 2.68, 2.68, 2.68, 2.68, 2.68, 2.68, 2.68, 2.68, 2.68, 3.13, 2.68, 2.68, 2.68, 2.68, 3.13, 3.13, 3.58, 3.58, 4.02, 4.02, 4.47, 4.47, 4.47, 4.92, 4.92, 4.92, 4.92, -3.58, -3.58, -3.58, -3.58, -3.13, -3.13, -3.13, -3.13, -3.13, -3.13, -2.68, -2.68, -2.68, -2.68, -2.24, -2.24, -2.24, -1.79, -1.79, -1.79, -1.34, -1.34, -1.34, -1.34, -0.89, -0.89, -0.89, -0.45, -0.45, -0.45, 0.0, 0.0, 0.0, 0.0, 0.0, 0.45, 0.45, 0.45, 0.89, 0.89, 0.89, 1.34, 1.34, 1.34, 1.79, 1.79, 1.79, 1.79, 2.24, 2.24, 2.24, 2.24, 2.24, 2.68, 2.68, 2.68, 2.68, 2.24, 2.24, 2.24, 2.68, 2.68, 2.68, 2.68, 2.68, 2.68, 2.24, 2.68, 2.68, 2.68, 2.24, 2.24, 2.24, 2.24, 2.68, 2.68, 2.24, 2.24, 2.24, 2.68, 2.68, 2.68, 2.68, 2.68, 2.68, 2.68, 3.13, 3.13, 3.13, 3.58, 4.02, 4.02, 4.47, 4.47, 4.92, 4.92, 4.92, 4.92, -3.58, -3.58, -3.58, -3.58, -3.13, -3.13, -3.13, -3.13, -3.13, -3.13, -2.68, -2.68, -2.68, -2.68, -2.24, -2.24, -2.24, -1.79, -1.79, -1.79, -1.34, -1.34, -1.34, -1.34, -0.89, -0.89, -0.89, -0.45, -0.45, -0.45, 0.0, 0.0, 0.0, 0.0, 0.0, 0.0, 0.45, 0.45, 0.89, 0.89, 0.89, 1.34, 1.34, 1.34, 1.79, 1.79, 1.79, 1.79, 1.79, 2.24, 2.24, 2.24, 2.24, 2.68, 2.68, 2.68, 2.68, 2.24, 2.24, 2.24, 2.24, 2.68, 2.24, 2.68, 2.24, 2.24, 2.24, 2.24, 2.24, 2.24, 2.24, 2.24, 2.24, 2.24, 2.68, 2.68, 2.68, 2.68, 2.68, 2.68, 2.24, 2.24, 2.24, 2.68, 2.68, 2.68, 2.68, 2.68, 3.13, 3.13, 3.58, 4.02, 4.02, 4.47, 4.47, 4.92, 4.92, 4.92, -3.58, -3.58, -3.58, -3.58, -3.13, -3.13, -3.13, -3.13, -3.13, -3.13, -3.13, -2.68, -2.68, -2.68, -2.24, -2.24, -2.24, -2.24, -1.79, -1.79, -1.34, -1.34, -1.34, -1.34, -0.89, -0.89, -0.89, -0.45, -0.45, -0.45, 0.0, 0.0, 0.0, 0.0, 0.0, 0.0, 0.45, 0.45, 0.89, 0.89, 0.89, 1.34, 1.34, 1.34, 1.34, 1.79, 1.79, 1.79, 1.79, 2.24, 2.24, 2.24, 2.24, 2.24, 2.68, 2.68, 2.24, 2.24, 2.24, 2.24, 2.24, 2.24, 2.24, 2.24, 2.24, 2.24, 2.24, 2.24, 2.24, 2.24, 2.68, 2.68, 2.24, 2.24, 2.24, 2.68, 2.68, 2.68, 2.68, 2.68, 2.24, 2.24, 2.24, 2.24, 2.24, 2.24, 2.24, 2.24, 2.68, 3.13, 3.13, 3.58, 4.02, 4.02, 4.47, 4.47, 4.92, 4.92, -3.58, -3.58, -3.58, -3.13, -3.13, -3.13, -3.13, -3.13, -3.13, -3.13, -3.13, -2.68, -2.68, -2.68, -2.68, -2.24, -2.24, -2.24, -1.79, -1.79, -1.34, -1.34, -1.34, -1.34, -0.89, -0.89, -0.89, -0.45, -0.45, -0.45, 0.0, 0.0, 0.0, 0.0, 0.0, 0.0, 0.45, 0.45, 0.45, 0.89, 0.89, 1.34, 1.34, 1.34, 1.34, 1.79, 1.79, 1.79, 1.79, 1.79, 2.24, 2.24, 2.24, 2.24, 2.24, 2.24, 2.24, 2.24, 2.24, 2.24, 2.24, 2.24, 2.24, 2.24, 2.24, 2.24, 2.24, 2.24, 2.24, 2.24, 2.24, 2.68, 2.68, 2.68, 2.24, 2.24, 2.68, 2.68, 2.68, 2.68, 2.24, 2.24, 2.24, 2.24, 2.24, 2.24, 2.24, 2.24, 2.24, 2.68, 3.13, 3.58, 3.58, 4.02, 4.02, 4.47, 4.47, 4.47, -3.58, -3.58, -3.13, -3.13, -3.13, -3.13, -3.13, -3.13, -3.13, -3.13, -3.13, -2.68, -2.68, -2.68, -2.68, -2.24, -2.24, -2.24, -1.79, -1.79, -1.34, -1.34, -1.34, -1.34, -0.89, -0.89, -0.89, -0.45, -0.45, -0.45, 0.0, 0.0, 0.0, 0.0, 0.0, 0.0, 0.45, 0.45, 0.45, 0.89, 0.89, 1.34, 1.34, 1.34, 1.34, 1.79, 1.79, 1.79, 1.79, 1.79, 2.24, 2.24, 2.24, 2.24, 2.24, 2.24, 2.24, 2.24, 2.24, 2.24, 2.24, 2.24, 2.24, 2.24, 2.24, 2.24, 2.24, 2.24, 2.24, 2.68, 2.68, 2.68, 2.68, 2.68, 2.68, 2.24, 2.24, 2.68, 2.68, 2.68, 2.24, 2.24, 2.24, 2.24, 2.24, 2.24, 2.24, 2.24, 2.24, 2.68, 2.68, 3.13, 3.58, 3.58, 4.02, 4.47, 4.47, 4.47, -3.58, -3.58, -3.13, -3.13, -3.13, -3.13, -3.13, -3.13, -3.13, -3.13, -3.13, -3.13, -2.68, -2.68, -2.68, -2.24, -2.24, -2.24, -1.79, -1.79, -1.34, -1.34, -1.34, -1.34, -0.89, -0.89, -0.89, -0.45, -0.45, -0.45, 0.0, 0.0, 0.0, 0.0, 0.0, 0.0, 0.45, 0.45, 0.45, 0.89, 0.89, 1.34, 1.34, 1.34, 1.34, 1.79, 1.79, 1.79, 1.79, 1.79, 2.24, 2.24, 2.24, 2.24, 2.24, 2.24, 2.24, 2.24, 2.24, 2.24, 2.24, 2.24, 2.24, 2.24, 2.24, 2.24, 2.24, 2.24, 2.68, 2.68, 2.68, 2.68, 2.68, 2.68, 2.68, 2.68, 2.68, 2.24, 2.68, 2.68, 2.68, 2.68, 2.24, 2.24, 2.24, 2.24, 2.24, 2.24, 2.24, 2.24, 2.68, 3.13, 3.13, 3.58, 4.02, 4.02, 4.02, 4.02, -3.13, -3.13, -3.13, -3.13, -3.13, -3.13, -3.13, -3.13, -3.13, -3.13, -3.13, -2.68, -2.68, -2.68, -2.68, -2.68, -2.24, -2.24, -2.24, -1.79, -1.79, -1.34, -1.34, -1.34, -0.89, -0.89, -0.89, -0.45, -0.45, -0.45, 0.0, 0.0, 0.0, 0.0, 0.0, 0.0, 0.45, 0.45, 0.45, 0.89, 0.89, 1.34, 1.34, 1.34, 1.34, 1.79, 1.79, 1.79, 1.79, 1.79, 1.79, 2.24, 2.24, 2.24, 2.24, 2.24, 2.24, 2.24, 2.24, 2.24, 2.24, 2.24, 2.24, 2.24, 2.24, 2.68, 2.68, 2.68, 2.68, 2.68, 2.68, 2.68, 2.68, 2.68, 2.68, 2.68, 2.68, 2.68, 2.24, 2.68, 2.68, 2.68, 2.68, 2.24, 2.24, 2.24, 2.24, 2.24, 2.24, 2.24, 2.68, 3.13, 3.13, 3.58, 3.58, 3.58, 3.58, 3.58, -3.13, -3.13, -3.13, -3.13, -3.13, -3.13, -3.13, -3.13, -3.13, -2.68, -2.68, -2.68, -2.68, -2.68, -2.68, -2.68, -2.24, -2.24, -2.24, -1.79, -1.79, -1.34, -1.34, -1.34, -0.89, -0.89, -0.89, -0.45, -0.45, -0.45, 0.0, 0.0, 0.0, 0.0, 0.0, 0.0, 0.45, 0.45, 0.89, 0.89, 0.89, 1.34, 1.34, 1.34, 1.34, 1.79, 1.79, 1.79, 1.79, 1.79, 1.79, 2.24, 2.24, 2.24, 2.24, 2.24, 2.24, 2.24, 2.24, 2.24, 2.24, 2.24, 2.24, 2.24, 2.68, 2.68, 2.68, 2.68, 2.68, 2.68, 2.68, 2.68, 2.68, 2.68, 2.68, 2.68, 2.68, 2.68, 2.68, 2.68, 2.68, 2.68, 2.68, 2.68, 2.68, 2.24, 2.24, 2.24, 2.24, 2.24, 2.68, 2.68, 3.13, 3.13, 3.58, 3.58, 3.58, 3.58, -3.58, -3.58, -3.13, -3.13, -3.13, -3.13, -3.13, -2.68, -2.68, -2.68, -2.68, -2.68, -2.68, -2.68, -2.68, -2.68, -2.24, -2.24, -2.24, -1.79, -1.79, -1.34, -1.34, -1.34, -1.34, -0.89, -0.89, -0.45, -0.45, -0.45, 0.0, 0.0, 0.0, 0.0, 0.0, 0.0, 0.45, 0.45, 0.89, 0.89, 0.89, 1.34, 1.34, 1.34, 1.34, 1.79, 1.79, 1.79, 1.79, 1.79, 1.79, 2.24, 2.24, 2.24, 2.24, 2.24, 2.24, 2.24, 2.24, 2.24, 2.24, 2.24, 2.24, 2.68, 2.68, 2.68, 2.68, 2.68, 2.68, 2.68, 2.68, 2.68, 2.68, 2.68, 2.68, 2.68, 2.68, 2.68, 2.68, 2.68, 2.68, 2.68, 2.68, 2.68, 2.68, 2.68, 2.24, 2.24, 2.68, 2.68, 2.68, 2.68, 3.13, 3.13, 3.13, 3.58, 3.58, 3.58, -3.58, -3.58, -3.13, -3.13, -3.13, -3.13, -3.13, -2.68, -2.68, -2.68, -2.68, -2.68, -2.68, -2.68, -2.68, -2.24, -2.24, -2.24, -2.24, -1.79, -1.79, -1.34, -1.34, -1.34, -1.34, -0.89, -0.89, -0.45, -0.45, -0.45, 0.0, 0.0, 0.0, 0.0, 0.0, 0.45, 0.45, 0.45, 0.89, 0.89, 0.89, 1.34, 1.34, 1.34, 1.34, 1.79, 1.79, 1.79, 1.79, 1.79, 2.24, 2.24, 2.24, 2.24, 2.24, 2.24, 2.24, 2.24, 2.24, 2.24, 2.68, 2.68, 2.68, 2.68, 2.68, 2.68, 2.68, 2.68, 2.68, 2.68, 2.68, 2.68, 2.68, 2.68, 2.68, 2.68, 2.68, 2.68, 2.68, 2.68, 2.68, 2.68, 2.68, 2.68, 2.68, 2.68, 2.68, 2.68, 2.68, 2.68, 2.68, 2.68, 3.13, 3.13, 3.13, 3.13, 3.13, 3.13, -3.58, -3.58, -3.13, -3.13, -3.13, -3.13, -3.13, -2.68, -2.68, -2.68, -2.68, -2.68, -2.68, -2.68, -2.24, -2.24, -2.24, -2.24, -2.24, -1.79, -1.79, -1.79, -1.34, -1.34, -1.34, -0.89, -0.89, -0.89, -0.45, -0.45, 0.0, 0.0, 0.0, 0.0, 0.0, 0.45, 0.45, 0.45, 0.89, 0.89, 0.89, 1.34, 1.34, 1.34, 1.34, 1.79, 1.79, 1.79, 1.79, 1.79, 2.24, 2.24, 2.24, 2.24, 2.24, 2.24, 2.24, 2.24, 2.68, 2.68, 2.68, 2.68, 2.24, 2.24, 2.24, 2.24, 2.24, 2.68, 2.68, 2.68, 2.68, 2.68, 2.68, 2.68, 2.68, 2.68, 2.68, 2.68, 2.68, 2.68, 2.68, 2.68, 2.24, 2.68, 2.68, 2.68, 2.68, 2.68, 2.68, 2.68, 3.13, 3.13, 3.13, 3.13, 3.13, 3.13, 3.13, 3.13, -3.58, -3.58, -3.13, -3.13, -3.13, -3.13, -3.13, -2.68, -2.68, -2.68, -2.68, -2.68, -2.68, -2.68, -2.24, -2.24, -2.24, -2.24, -2.24, -1.79, -1.79, -1.34, -1.34, -1.34, -1.34, -0.89, -0.89, -0.89, -0.45, -0.45, 0.0, 0.0, 0.0, 0.0, 0.0, 0.45, 0.45, 0.45, 0.89, 0.89, 0.89, 0.89, 1.34, 1.34, 1.34, 1.79, 1.79, 1.79, 1.79, 1.79, 2.24, 2.24, 2.24, 2.24, 2.24, 2.24, 2.24, 2.68, 2.68, 2.68, 2.68, 2.24, 2.24, 2.24, 2.24, 2.24, 2.24, 2.24, 2.68, 2.68, 2.68, 2.68, 2.68, 2.68, 2.68, 2.68, 2.68, 2.68, 2.68, 2.68, 2.68, 2.68, 2.24, 2.24, 2.24, 2.24, 2.68, 2.68, 2.68, 2.68, 3.13, 3.13, 3.13, 3.13, 3.13, 3.13, 3.13, 3.13, -3.58, -3.58, -3.13, -3.13, -3.13, -3.13, -3.13, -2.68, -2.68, -2.68, -2.68, -2.68, -2.68, -2.24, -2.24, -2.24, -2.24, -2.24, -2.24, -1.79, -1.79, -1.79, -1.34, -1.34, -1.34, -0.89, -0.89, -0.89, -0.45, -0.45, 0.0, 0.0, 0.0, 0.0, 0.0, 0.45, 0.45, 0.45, 0.89, 0.89, 0.89, 0.89, 1.34, 1.34, 1.34, 1.34, 1.79, 1.79, 1.79, 1.79, 1.79, 2.24, 2.24, 2.24, 2.24, 2.24, 2.24, 2.24, 2.68, 2.68, 2.24, 2.24, 2.24, 2.24, 2.24, 2.24, 2.24, 2.24, 2.24, 2.24, 2.68, 2.68, 2.68, 2.68, 2.68, 2.68, 2.68, 2.68, 2.68, 2.68, 2.68, 2.68, 2.68, 2.68, 2.24, 2.24, 2.68, 2.68, 2.68, 2.68, 3.13, 3.13, 3.13, 3.13, 3.13, 3.58, 3.58, 3.58, -3.58, -3.58, -3.13, -3.13, -3.13, -3.13, -3.13, -3.13, -2.68, -2.68, -2.68, -2.68, -2.68, -2.24, -2.24, -2.24, -2.24, -2.24, -2.24, -1.79, -1.79, -1.79, -1.34, -1.34, -1.34, -0.89, -0.89, -0.89, -0.45, -0.45, 0.0, 0.0, 0.0, 0.0, 0.0, 0.45, 0.45, 0.45, 0.89, 0.89, 0.89, 0.89, 1.34, 1.34, 1.34, 1.34, 1.79, 1.79, 1.79, 1.79, 1.79, 2.24, 2.24, 2.24, 2.24, 2.24, 2.24, 2.24, 2.24, 2.24, 2.24, 2.24, 2.24, 2.24, 2.24, 2.24, 2.24, 2.24, 2.24, 2.24, 2.24, 2.24, 2.24, 2.68, 2.68, 2.68, 2.68, 2.68, 2.68, 2.68, 2.68, 2.68, 2.68, 2.24, 2.24, 2.24, 2.24, 2.68, 2.68, 2.68, 3.13, 3.13, 3.13, 3.13, 3.58, 3.58, 3.58, 3.58, -3.58, -3.58, -3.13, -3.13, -3.13, -3.13, -3.13, -3.13, -2.68, -2.68, -2.68, -2.68, -2.68, -2.68, -2.24, -2.24, -2.24, -2.24, -2.24, -1.79, -1.79, -1.79, -1.34, -1.34, -0.89, -0.89, -0.89, -0.89, -0.45, -0.45, 0.0, 0.0, 0.0, 0.0, 0.0, 0.0, 0.45, 0.45, 0.45, 0.89, 0.89, 0.89, 0.89, 1.34, 1.34, 1.34, 1.34, 1.79, 1.79, 1.79, 1.79, 1.79, 2.24, 2.24, 2.24, 2.24, 2.24, 2.24, 2.24, 2.24, 2.24, 2.24, 2.24, 2.24, 2.24, 2.24, 2.24, 2.24, 2.24, 2.24, 2.24, 2.24, 2.24, 2.24, 2.68, 2.68, 2.68, 2.68, 2.68, 2.68, 2.68, 2.68, 2.68, 2.68, 2.24, 2.24, 2.24, 2.24, 2.68, 2.68, 2.68, 3.13, 3.13, 3.13, 3.58, 3.58, 3.58, 3.58, -3.58, -3.58, -3.58, -3.13, -3.13, -3.13, -3.13, -3.13, -3.13, -2.68, -2.68, -2.68, -2.68, -2.68, -2.24, -2.24, -2.24, -2.24, -2.24, -1.79, -1.79, -1.79, -1.34, -1.34, -0.89, -0.89, -0.89, -0.89, -0.45, -0.45, 0.0, 0.0, 0.0, 0.0, 0.0, 0.0, 0.45, 0.45, 0.45, 0.89, 0.89, 0.89, 0.89, 1.34, 1.34, 1.34, 1.34, 1.79, 1.79, 1.79, 1.79, 1.79, 2.24, 2.24, 2.24, 2.24, 2.24, 2.24, 2.24, 2.24, 2.24, 2.24, 2.24, 2.24, 2.24, 2.24, 2.24, 2.24, 2.24, 2.24, 2.24, 2.24, 2.24, 2.24, 2.68, 2.68, 2.68, 2.68, 2.68, 2.68, 2.68, 2.68, 2.68, 2.68, 2.68, 2.24, 2.24, 2.24, 2.68, 2.68, 2.68, 3.13, 3.13, 3.13, 3.13, 3.58, 3.58, 3.58, -3.58, -3.58, -3.58, -3.13, -3.13, -3.13, -3.13, -3.13, -3.13, -2.68, -2.68, -2.68, -2.68, -2.68, -2.24, -2.24, -2.24, -2.24, -2.24, -1.79, -1.79, -1.79, -1.34, -1.34, -0.89, -0.89, -0.89, -0.45, -0.45, -0.45, -0.45, 0.0, 0.0, 0.0, 0.0, 0.0, 0.45, 0.45, 0.45, 0.89, 0.89, 0.89, 0.89, 0.89, 1.34, 1.34, 1.34, 1.34, 1.79, 1.79, 1.79, 1.79, 1.79, 2.24, 2.24, 2.24, 2.24, 2.24, 2.24, 2.24, 2.24, 2.24, 2.24, 2.24, 2.24, 2.24, 2.24, 2.24, 2.24, 2.24, 2.68, 2.68, 2.68, 2.68, 2.68, 2.68, 2.68, 2.68, 2.68, 2.68, 2.68, 2.68, 2.68, 2.68, 2.68, 2.68, 2.68, 2.68, 2.68, 2.68, 2.68, 2.68, 3.13, 3.13, 3.13, 3.58, 3.58, 3.58, -3.58, -3.58, -3.58, -3.13, -3.13, -3.13, -3.13, -3.13, -3.13, -3.13, -2.68, -2.68, -2.68, -2.68, -2.68, -2.24, -2.24, -2.24, -2.24, -1.79, -1.79, -1.79, -1.34, -1.34, -0.89, -0.89, -0.89, -0.45, -0.45, -0.45, -0.45, 0.0, 0.0, 0.0, 0.0, 0.0, 0.0, 0.45, 0.45, 0.45, 0.89, 0.89, 0.89, 0.89, 1.34, 1.34, 1.34, 1.34, 1.79, 1.79, 1.79, 1.79, 1.79, 1.79, 2.24, 2.24, 2.24, 2.24, 2.24, 2.24, 2.24, 2.24, 2.24, 2.24, 2.24, 2.24, 2.24, 2.68, 2.68, 2.68, 2.68, 2.68, 2.68, 2.68, 2.68, 2.68, 2.68, 2.68, 2.68, 2.68, 2.68, 2.68, 2.68, 2.68, 2.68, 2.68, 2.68, 2.68, 2.68, 2.68, 2.68, 2.68, 3.13, 3.13, 3.13, 3.13, 3.13, 3.13, -3.58, -3.58, -3.58, -3.58, -3.13, -3.13, -3.13, -3.13, -3.13, -3.13, -2.68, -2.68, -2.68, -2.68, -2.68, -2.24, -2.24, -2.24, -1.79, -1.79, -1.79, -1.79, -1.34, -1.34, -0.89, -0.89, -0.89, -0.45, -0.45, -0.45, -0.45, 0.0, 0.0, 0.0, 0.0, 0.0, 0.0, 0.45, 0.45, 0.45, 0.89, 0.89, 0.89, 0.89, 0.89, 1.34, 1.34, 1.34, 1.34, 1.79, 1.79, 1.79, 1.79, 1.79, 1.79, 2.24, 2.24, 2.24, 2.24, 2.24, 2.24, 2.24, 2.24, 2.24, 2.24, 2.24, 2.68, 2.68, 2.68, 2.68, 2.68, 2.68, 2.68, 2.68, 2.68, 2.68, 2.68, 2.68, 2.68, 2.68, 2.68, 2.68, 2.68, 2.68, 2.68, 2.68, 2.68, 2.68, 2.68, 2.68, 2.68, 2.68, 3.13, 3.13, 3.13, 3.13, 3.13, 3.13, -3.58, -3.58, -3.58, -3.58, -3.13, -3.13, -3.13, -3.13, -3.13, -3.13, -2.68, -2.68, -2.68, -2.68, -2.68, -2.24, -2.24, -2.24, -1.79, -1.79, -1.79, -1.79, -1.34, -1.34, -0.89, -0.89, -0.89, -0.45, -0.45, -0.45, -0.45, 0.0, 0.0, 0.0, 0.0, 0.0, 0.0, 0.45, 0.45, 0.45, 0.45, 0.89, 0.89, 0.89, 0.89, 1.34, 1.34, 1.34, 1.34, 1.34, 1.79, 1.79, 1.79, 1.79, 1.79, 2.24, 2.24, 2.24, 2.24, 2.24, 2.24, 2.24, 2.24, 2.24, 2.24, 2.24, 2.68, 2.68, 2.68, 2.68, 2.68, 2.68, 2.68, 2.68, 2.68, 2.68, 2.68, 2.68, 2.68, 2.68, 2.68, 2.68, 2.68, 2.68, 2.68, 2.68, 2.68, 2.68, 2.68, 2.68, 2.68, 3.13, 3.13, 3.13, 3.13, 3.13, 3.13, 3.13, -3.58, -3.58, -3.58, -3.58, -3.13, -3.13, -3.13, -3.13, -3.13, -3.13, -2.68, -2.68, -2.68, -2.68, -2.68, -2.24, -2.24, -2.24, -1.79, -1.79, -1.79, -1.79, -1.34, -1.34, -0.89, -0.89, -0.89, -0.89, -0.45, -0.45, -0.45, -0.45, 0.0, 0.0, 0.0, 0.0, 0.0, 0.0, 0.45, 0.45, 0.45, 0.45, 0.89, 0.89, 0.89, 0.89, 1.34, 1.34, 1.34, 1.34, 1.79, 1.79, 1.79, 1.79, 1.79, 2.24, 2.24, 2.24, 2.24, 2.24, 2.24, 2.24, 2.24, 2.24, 2.24, 2.24, 2.68, 2.68, 2.68, 2.68, 2.68, 2.68, 2.68, 2.68, 2.68, 2.68, 2.68, 2.68, 2.68, 2.68, 2.68, 2.68, 2.68, 2.68, 2.68, 2.68, 2.68, 2.68, 2.68, 2.68, 2.68, 2.68, 3.13, 3.13, 3.13, 3.13, 3.13, 3.13, -3.58, -3.58, -3.58, -3.13, -3.13, -3.13, -3.13, -3.13, -3.13, -3.13, -2.68, -2.68, -2.68, -2.68, -2.68, -2.24, -2.24, -2.24, -2.24, -1.79, -1.79, -1.79, -1.34, -1.34, -0.89, -0.89, -0.89, -0.89, -0.45, -0.45, -0.45, -0.45, 0.0, 0.0, 0.0, 0.0, 0.0, 0.0, 0.0, 0.45, 0.45, 0.45, 0.45, 0.89, 0.89, 0.89, 1.34, 1.34, 1.34, 1.34, 1.79, 1.79, 1.79, 1.79, 1.79, 2.24, 2.24, 2.24, 2.24, 2.24, 2.24, 2.24, 2.24, 2.24, 2.24, 2.68, 2.68, 2.68, 2.68, 2.68, 2.68, 2.68, 2.68, 2.68, 2.68, 2.68, 2.68, 2.68, 2.68, 2.68, 2.68, 2.68, 2.68, 2.68, 2.68, 2.68, 2.68, 2.68, 2.68, 2.68, 2.68, 2.68, 2.68, 3.13, 3.13, 3.13, 3.13, 3.13, -3.58, -3.58, -3.58, -3.13, -3.13, -3.13, -3.13, -3.13, -3.13, -3.13, -2.68, -2.68, -2.68, -2.68, -2.68, -2.24, -2.24, -2.24, -2.24, -1.79, -1.79, -1.79, -1.34, -1.34, -0.89, -0.89, -0.89, -0.89, -0.45, -0.45, -0.45, -0.45, 0.0, 0.0, 0.0, 0.0, 0.0, 0.0, 0.0, 0.45, 0.45, 0.45, 0.45, 0.89, 0.89, 0.89, 1.34, 1.34, 1.34, 1.34, 1.79, 1.79, 1.79, 1.79, 1.79, 2.24, 2.24, 2.24, 2.24, 2.24, 2.24, 2.24, 2.24, 2.24, 2.24, 2.68, 2.68, 2.68, 2.68, 2.68, 2.68, 2.68, 2.68, 2.68, 2.68, 2.68, 2.68, 2.68, 2.68, 2.68, 2.68, 2.68, 2.68, 2.68, 2.68, 2.68, 2.68, 2.68, 2.68, 2.68, 2.68, 2.68, 2.68, 2.68, 3.13, 3.13, 3.13, 3.13]}]